Time,TemperatureF,DewpointF,PressureIn,WindDirection,WindDirectionDegrees,WindSpeedMPH,WindSpeedGustMPH,Humidity,HourlyPrecipIn,Conditions,Clouds,dailyrainin,SoftwareType,DateUTC
2013-04-02 00:00:00,52.0,0.8,28.03,North,0,5.8,5.8,12,0.00,RA,SKC,0.00,WeatherDisplay:10.37,2013-04-02 04:00:00,
2013-04-02 00:05:00,52.0,0.8,28.03,North,0,3.5,3.5,12,0.00,RA,SKC,0.00,WeatherDisplay:10.37,2013-04-02 04:05:00,
2013-04-02 00:10:00,52.7,1.4,28.02,North,0,6.9,6.9,12,0.00,CLR,SKC,0.00,WeatherDisplay:10.37,2013-04-02 04:10:00,
2013-04-02 00:15:00,52.2,1.0,28.02,NNW,338,3.5,3.5,12,0.00,CLR,SKC,0.00,WeatherDisplay:10.37,2013-04-02 04:15:00,
2013-04-02 00:20:00,51.8,0.7,28.02,North,0,4.6,4.6,12,0.00,CLR,SKC,0.00,WeatherDisplay:10.37,2013-04-02 04:20:00,
2013-04-02 00:21:00,51.8,0.7,28.02,North,0,4.6,4.6,12,0.00,CLR,SKC,0.00,WeatherDisplay:10.37,2013-04-02 04:21:00,
2013-04-02 00:25:00,51.8,0.7,28.02,North,0,8.1,8.1,12,0.00,CLR,SKC,0.00,WeatherDisplay:10.37,2013-04-02 04:25:00,
2013-04-02 00:27:00,52.0,0.8,28.02,North,0,5.8,5.8,12,0.00,CLR,SKC,0.00,WeatherDisplay:10.37,2013-04-02 04:27:00,
2013-04-02 00:30:00,51.6,0.6,28.02,WNW,292,5.8,5.8,12,0.00,CLR,SKC,0.00,WeatherDisplay:10.37,2013-04-02 04:30:00,
2013-04-02 00:33:00,51.8,0.7,28.02,North,0,3.5,3.5,12,0.00,CLR,SKC,0.00,WeatherDisplay:10.37,2013-04-02 04:33:00,
2013-04-02 00:35:00,51.6,0.6,28.02,ENE,68,3.5,3.5,12,0.00,CLR,SKC,0.00,WeatherDisplay:10.37,2013-04-02 04:35:00,
2013-04-02 00:38:00,51.3,0.3,28.02,NE,45,3.5,3.5,12,0.00,CLR,SKC,0.00,WeatherDisplay:10.37,2013-04-02 04:38:00,
2013-04-02 00:40:00,51.1,0.1,28.02,North,0,4.6,4.6,12,0.00,CLR,SKC,0.00,WeatherDisplay:10.37,2013-04-02 04:40:00,
2013-04-02 00:41:00,50.9,0.0,28.02,North,0,4.6,4.6,12,0.00,CLR,SKC,0.00,WeatherDisplay:10.37,2013-04-02 04:41:00,
2013-04-02 00:43:00,50.5,-0.3,28.01,NW,315,1.1,1.6,12,0.00,CLR,SKC,0.00,WeatherDisplay:10.37,2013-04-02 04:43:00,
2013-04-02 00:45:00,50.4,-0.4,28.02,North,0,3.5,3.5,12,0.00,CLR,SKC,0.00,WeatherDisplay:10.37,2013-04-02 04:45:00,
2013-04-02 00:46:00,50.4,-0.4,28.02,NW,315,5.8,5.8,12,0.00,CLR,SKC,0.00,WeatherDisplay:10.37,2013-04-02 04:46:00,
2013-04-02 00:48:00,50.4,-0.4,28.02,NW,315,4.6,4.6,12,0.00,CLR,SKC,0.00,WeatherDisplay:10.37,2013-04-02 04:48:00,
2013-04-02 00:51:00,50.0,-0.7,28.02,North,0,4.6,4.6,12,0.00,CLR,SKC,0.00,WeatherDisplay:10.37,2013-04-02 04:51:00,
2013-04-02 00:53:00,49.6,-1.0,28.02,NW,315,4.6,4.6,12,0.00,CLR,SKC,0.00,WeatherDisplay:10.37,2013-04-02 04:53:00,
2013-04-02 00:56:00,49.8,-0.9,28.02,North,0,3.5,3.5,12,0.00,CLR,SKC,0.00,WeatherDisplay:10.37,2013-04-02 04:56:00,
2013-04-02 00:58:00,49.6,-1.0,28.02,NE,45,3.5,3.5,12,0.00,CLR,SKC,0.00,WeatherDisplay:10.37,2013-04-02 04:58:00,
2013-04-02 01:02:00,49.6,-1.0,28.02,NE,45,1.1,0.0,12,0.00,CLR,SKC,0.00,WeatherDisplay:10.37,2013-04-02 05:02:00,
2013-04-02 01:03:00,49.6,-1.0,28.02,NE,45,1.1,0.0,12,0.00,CLR,SKC,0.00,WeatherDisplay:10.37,2013-04-02 05:03:00,
2013-04-02 01:04:00,49.6,-1.0,28.01,NE,45,1.6,0.0,12,0.00,CLR,SKC,0.00,WeatherDisplay:10.37,2013-04-02 05:04:00,
2013-04-02 01:07:00,49.6,-1.0,28.02,NE,45,1.1,0.0,12,0.00,CLR,SKC,0.00,WeatherDisplay:10.37,2013-04-02 05:07:00,
2013-04-02 01:08:00,48.9,-1.6,28.02,NE,45,1.1,0.0,12,0.00,CLR,SKC,0.00,WeatherDisplay:10.37,2013-04-02 05:08:00,
2013-04-02 01:09:00,48.7,-1.7,28.02,NE,45,1.1,0.0,12,0.00,CLR,SKC,0.00,WeatherDisplay:10.37,2013-04-02 05:09:00,
2013-04-02 01:12:00,48.4,-2.0,28.02,North,0,1.1,0.0,12,0.00,CLR,SKC,0.00,WeatherDisplay:10.37,2013-04-02 05:12:00,
2013-04-02 01:13:00,48.4,-2.0,28.02,NW,315,1.1,0.0,12,0.00,CLR,SKC,0.00,WeatherDisplay:10.37,2013-04-02 05:13:00,
2013-04-02 01:14:00,48.4,-2.0,28.02,NNW,338,4.6,4.6,12,0.00,CLR,SKC,0.00,WeatherDisplay:10.37,2013-04-02 05:14:00,
2013-04-02 01:17:00,48.7,-1.7,28.02,NE,45,3.5,0.0,12,0.00,CLR,SKC,0.00,WeatherDisplay:10.37,2013-04-02 05:17:00,
2013-04-02 01:18:00,48.7,-1.7,28.02,NNE,22,3.5,0.0,12,0.00,CLR,SKC,0.00,WeatherDisplay:10.37,2013-04-02 05:18:00,
2013-04-02 01:19:00,48.7,-1.7,28.02,NW,315,1.1,1.6,12,0.00,CLR,SKC,0.00,WeatherDisplay:10.37,2013-04-02 05:19:00,
2013-04-02 01:22:00,48.6,-1.9,28.02,North,0,2.3,2.3,12,0.00,CLR,SKC,0.00,WeatherDisplay:10.37,2013-04-02 05:22:00,
2013-04-02 01:24:00,48.4,-2.0,28.02,North,0,3.5,3.5,12,0.00,CLR,SKC,0.00,WeatherDisplay:10.37,2013-04-02 05:24:00,
2013-04-02 01:28:00,48.2,-6.0,28.02,North,0,1.1,0.0,10,0.00,CLR,SKC,0.00,WeatherDisplay:10.37,2013-04-02 05:28:00,
2013-04-02 01:29:00,48.0,-6.1,28.02,NW,315,1.1,0.0,10,0.00,CLR,SKC,0.00,WeatherDisplay:10.37,2013-04-02 05:29:00,
2013-04-02 01:33:00,47.5,-6.5,28.02,NW,315,0.0,0.0,10,0.00,CLR,SKC,0.00,WeatherDisplay:10.37,2013-04-02 05:33:00,
2013-04-02 01:34:00,47.5,-6.5,28.02,North,0,0.0,0.0,10,0.00,CLR,SKC,0.00,WeatherDisplay:10.37,2013-04-02 05:34:00,
2013-04-02 01:38:00,47.1,-1.3,28.02,NW,315,0.0,0.0,13,0.00,CLR,SKC,0.00,WeatherDisplay:10.37,2013-04-02 05:38:00,
2013-04-02 01:39:00,46.9,-5.0,28.02,NW,315,0.0,0.0,11,0.00,CLR,SKC,0.00,WeatherDisplay:10.37,2013-04-02 05:39:00,
2013-04-02 01:43:00,46.6,1.3,28.02,NW,315,0.0,0.0,15,0.00,CLR,SKC,0.00,WeatherDisplay:10.37,2013-04-02 05:43:00,
2013-04-02 01:44:00,46.4,-0.3,28.02,North,0,0.0,0.0,14,0.00,CLR,SKC,0.00,WeatherDisplay:10.37,2013-04-02 05:44:00,
2013-04-02 01:45:00,46.2,-2.0,28.02,North,0,0.0,0.0,13,0.00,CLR,SKC,0.00,WeatherDisplay:10.37,2013-04-02 05:45:00,
2013-04-02 01:48:00,46.2,-2.0,28.02,SE,135,0.0,0.0,13,0.00,CLR,SKC,0.00,WeatherDisplay:10.37,2013-04-02 05:48:00,
2013-04-02 01:49:00,46.0,2.3,28.02,SE,135,0.0,0.0,16,0.00,CLR,SKC,0.00,WeatherDisplay:10.37,2013-04-02 05:49:00,
2013-04-02 01:50:00,46.0,3.6,28.02,SE,135,0.0,0.0,17,0.00,CLR,SKC,0.00,WeatherDisplay:10.37,2013-04-02 05:50:00,
2013-04-02 01:53:00,45.7,0.6,28.03,SE,135,0.0,0.0,15,0.00,CLR,SKC,0.00,WeatherDisplay:10.37,2013-04-02 05:53:00,
2013-04-02 01:54:00,45.7,0.6,28.02,SE,135,0.0,0.0,15,0.00,CLR,SKC,0.00,WeatherDisplay:10.37,2013-04-02 05:54:00,
2013-04-02 01:56:00,45.3,1.7,28.02,SE,135,0.0,0.0,16,0.00,CLR,SKC,0.00,WeatherDisplay:10.37,2013-04-02 05:56:00,
2013-04-02 01:58:00,45.7,5.7,28.02,North,0,3.5,0.0,19,0.00,CLR,SKC,0.00,WeatherDisplay:10.37,2013-04-02 05:58:00,
2013-04-02 01:59:00,45.7,5.7,28.02,North,0,3.5,0.0,19,0.00,CLR,SKC,0.00,WeatherDisplay:10.37,2013-04-02 05:59:00,
2013-04-02 02:01:00,45.7,5.7,28.02,North,0,3.5,0.0,19,0.00,CLR,SKC,0.00,WeatherDisplay:10.37,2013-04-02 06:01:00,
2013-04-02 02:04:00,45.7,5.7,28.02,North,0,3.5,0.0,19,0.00,CLR,SKC,0.00,WeatherDisplay:10.37,2013-04-02 06:04:00,
2013-04-02 02:05:00,45.7,5.7,28.02,North,0,3.5,0.0,19,0.00,CLR,SKC,0.00,WeatherDisplay:10.37,2013-04-02 06:05:00,
2013-04-02 02:06:00,45.7,5.7,28.02,North,0,3.5,0.0,19,0.00,CLR,SKC,0.00,WeatherDisplay:10.37,2013-04-02 06:06:00,
2013-04-02 02:09:00,44.2,7.7,28.02,NE,45,1.6,1.6,22,0.00,CLR,SKC,0.00,WeatherDisplay:10.37,2013-04-02 06:09:00,
2013-04-02 02:10:00,44.2,7.7,28.02,NE,45,1.6,1.6,22,0.00,CLR,SKC,0.00,WeatherDisplay:10.37,2013-04-02 06:10:00,
2013-04-02 02:12:00,44.1,6.5,28.02,NE,45,1.1,0.0,21,0.00,CLR,SKC,0.00,WeatherDisplay:10.37,2013-04-02 06:12:00,
2013-04-02 02:14:00,44.1,6.5,28.02,SW,225,2.3,2.3,21,0.00,CLR,SKC,0.00,WeatherDisplay:10.37,2013-04-02 06:14:00,
2013-04-02 02:15:00,44.1,7.6,28.02,North,0,2.3,0.0,22,0.00,CLR,SKC,0.00,WeatherDisplay:10.37,2013-04-02 06:15:00,
2013-04-02 02:17:00,43.9,9.4,28.02,North,0,2.3,2.3,24,0.00,CLR,SKC,0.00,WeatherDisplay:10.37,2013-04-02 06:17:00,
2013-04-02 02:19:00,43.7,9.2,28.02,North,0,2.3,0.0,24,0.00,CLR,SKC,0.00,WeatherDisplay:10.37,2013-04-02 06:19:00,
2013-04-02 02:20:00,43.7,8.3,28.02,North,0,2.3,0.0,23,0.00,CLR,SKC,0.00,WeatherDisplay:10.37,2013-04-02 06:20:00,
2013-04-02 02:23:00,43.5,10.0,28.02,NW,315,1.1,0.0,25,0.00,CLR,SKC,0.00,WeatherDisplay:10.37,2013-04-02 06:23:00,
2013-04-02 02:24:00,43.5,9.1,28.02,North,0,1.1,0.0,24,0.00,CLR,SKC,0.00,WeatherDisplay:10.37,2013-04-02 06:24:00,
2013-04-02 02:25:00,43.5,9.1,28.02,North,0,1.1,0.0,24,0.00,CLR,SKC,0.00,WeatherDisplay:10.37,2013-04-02 06:25:00,
2013-04-02 02:28:00,43.2,11.4,28.02,North,0,1.1,0.0,27,0.00,CLR,SKC,0.00,WeatherDisplay:10.37,2013-04-02 06:28:00,
2013-04-02 02:29:00,43.2,10.5,28.03,North,0,1.1,0.0,26,0.00,CLR,SKC,0.00,WeatherDisplay:10.37,2013-04-02 06:29:00,
2013-04-02 02:30:00,43.2,10.5,28.02,North,0,1.1,0.0,26,0.00,CLR,SKC,0.00,WeatherDisplay:10.37,2013-04-02 06:30:00,
2013-04-02 02:33:00,43.3,11.5,28.02,NW,315,1.6,0.0,27,0.00,CLR,SKC,0.00,WeatherDisplay:10.37,2013-04-02 06:33:00,
2013-04-02 02:34:00,43.3,12.4,28.02,NE,45,1.1,0.0,28,0.00,CLR,SKC,0.00,WeatherDisplay:10.37,2013-04-02 06:34:00,
2013-04-02 02:35:00,43.3,11.5,28.02,NE,45,1.1,0.0,27,0.00,CLR,SKC,0.00,WeatherDisplay:10.37,2013-04-02 06:35:00,
2013-04-02 02:38:00,43.3,11.5,28.02,North,0,1.1,0.0,27,0.00,CLR,SKC,0.00,WeatherDisplay:10.37,2013-04-02 06:38:00,
2013-04-02 02:39:00,43.2,11.4,28.02,North,0,1.1,0.0,27,0.00,CLR,SKC,0.00,WeatherDisplay:10.37,2013-04-02 06:39:00,
2013-04-02 02:40:00,43.2,10.5,28.01,North,0,1.1,1.1,26,0.00,CLR,SKC,0.00,WeatherDisplay:10.37,2013-04-02 06:40:00,
2013-04-02 02:41:00,43.2,10.5,28.02,North,0,1.1,0.0,26,0.00,CLR,SKC,0.00,WeatherDisplay:10.37,2013-04-02 06:41:00,
2013-04-02 02:43:00,43.2,12.2,28.02,North,0,1.1,1.6,28,0.00,CLR,SKC,0.00,WeatherDisplay:10.37,2013-04-02 06:43:00,
2013-04-02 02:44:00,43.0,12.0,28.02,North,0,3.5,3.5,28,0.00,CLR,SKC,0.00,WeatherDisplay:10.37,2013-04-02 06:44:00,
2013-04-02 02:46:00,43.2,11.4,28.01,NW,315,3.5,0.0,27,0.00,CLR,SKC,0.00,WeatherDisplay:10.37,2013-04-02 06:46:00,
2013-04-02 02:48:00,43.3,13.2,28.02,North,0,1.1,0.0,29,0.00,CLR,SKC,0.00,WeatherDisplay:10.37,2013-04-02 06:48:00,
2013-04-02 02:50:00,43.0,12.0,28.02,North,0,2.3,0.0,28,0.00,CLR,SKC,0.00,WeatherDisplay:10.37,2013-04-02 06:50:00,
2013-04-02 02:51:00,43.0,12.0,28.02,North,0,2.3,0.0,28,0.00,CLR,SKC,0.00,WeatherDisplay:10.37,2013-04-02 06:51:00,
2013-04-02 02:52:00,43.0,12.8,28.02,North,0,2.3,0.0,29,0.00,CLR,SKC,0.00,WeatherDisplay:10.37,2013-04-02 06:52:00,
2013-04-02 02:53:00,43.0,13.6,28.02,North,0,2.3,0.0,30,0.00,CLR,SKC,0.00,WeatherDisplay:10.37,2013-04-02 06:53:00,
2013-04-02 02:55:00,42.8,14.2,28.02,North,0,3.5,0.0,31,0.00,CLR,SKC,0.00,WeatherDisplay:10.37,2013-04-02 06:55:00,
2013-04-02 02:57:00,42.8,13.5,28.02,North,0,2.3,2.3,30,0.00,CLR,SKC,0.00,WeatherDisplay:10.37,2013-04-02 06:57:00,
2013-04-02 02:58:00,43.0,13.6,28.02,North,0,1.1,0.0,30,0.00,CLR,SKC,0.00,WeatherDisplay:10.37,2013-04-02 06:58:00,
2013-04-02 03:00:00,43.0,13.6,28.02,North,0,1.1,0.0,30,0.00,CLR,SKC,0.00,WeatherDisplay:10.37,2013-04-02 07:00:00,
2013-04-02 03:02:00,43.0,13.6,28.03,North,0,0.0,0.0,30,0.00,CLR,SKC,0.00,WeatherDisplay:10.37,2013-04-02 07:02:00,
2013-04-02 03:03:00,43.0,13.6,28.03,North,0,0.0,0.0,30,0.00,CLR,SKC,0.00,WeatherDisplay:10.37,2013-04-02 07:03:00,
2013-04-02 03:05:00,43.0,13.6,28.03,North,0,0.0,0.0,30,0.00,CLR,SKC,0.00,WeatherDisplay:10.37,2013-04-02 07:05:00,
2013-04-02 03:08:00,42.1,14.3,28.02,SE,135,2.3,2.3,32,0.00,CLR,SKC,0.00,WeatherDisplay:10.37,2013-04-02 07:08:00,
2013-04-02 03:09:00,42.1,15.0,28.02,SE,135,2.3,2.3,33,0.00,CLR,SKC,0.00,WeatherDisplay:10.37,2013-04-02 07:09:00,
2013-04-02 03:10:00,42.1,15.0,28.03,SE,135,3.5,0.0,33,0.00,CLR,SKC,0.00,WeatherDisplay:10.37,2013-04-02 07:10:00,
2013-04-02 03:13:00,41.9,14.8,28.02,South,180,1.1,0.0,33,0.00,CLR,SKC,0.00,WeatherDisplay:10.37,2013-04-02 07:13:00,
2013-04-02 03:14:00,41.9,14.8,28.02,SE,135,1.1,0.0,33,0.00,CLR,SKC,0.00,WeatherDisplay:10.37,2013-04-02 07:14:00,
2013-04-02 03:15:00,41.7,14.7,28.03,SE,135,1.1,0.0,33,0.00,CLR,SKC,0.00,WeatherDisplay:10.37,2013-04-02 07:15:00,
2013-04-02 03:18:00,41.7,15.4,28.02,South,180,3.5,3.5,34,0.00,CLR,SKC,0.00,WeatherDisplay:10.37,2013-04-02 07:18:00,
2013-04-02 03:19:00,41.7,15.4,28.02,South,180,3.5,3.5,34,0.00,CLR,SKC,0.00,WeatherDisplay:10.37,2013-04-02 07:19:00,
2013-04-02 03:20:00,41.9,15.5,28.03,South,180,1.1,0.0,34,0.00,CLR,SKC,0.00,WeatherDisplay:10.37,2013-04-02 07:20:00,
2013-04-02 03:23:00,41.7,15.4,28.02,ENE,68,2.3,2.3,34,0.00,CLR,SKC,0.00,WeatherDisplay:10.37,2013-04-02 07:23:00,
2013-04-02 03:24:00,41.7,16.0,28.03,ENE,68,2.3,0.0,35,0.00,CLR,SKC,0.00,WeatherDisplay:10.37,2013-04-02 07:24:00,
2013-04-02 03:25:00,41.5,15.9,28.03,ENE,68,1.1,0.0,35,0.00,CLR,SKC,0.00,WeatherDisplay:10.37,2013-04-02 07:25:00,
2013-04-02 03:28:00,41.5,16.5,28.03,West,270,2.3,0.0,36,0.00,CLR,SKC,0.00,WeatherDisplay:10.37,2013-04-02 07:28:00,
2013-04-02 03:29:00,41.5,16.5,28.03,ENE,68,1.1,0.0,36,0.00,CLR,SKC,0.00,WeatherDisplay:10.37,2013-04-02 07:29:00,
2013-04-02 03:30:00,41.4,16.4,28.03,ENE,68,1.6,1.6,36,0.00,CLR,SKC,0.00,WeatherDisplay:10.37,2013-04-02 07:30:00,
2013-04-02 03:33:00,41.2,17.5,28.03,North,0,0.0,0.0,38,0.00,CLR,SKC,0.00,WeatherDisplay:10.37,2013-04-02 07:33:00,
2013-04-02 03:34:00,41.2,16.8,28.03,North,0,0.0,0.0,37,0.00,CLR,SKC,0.00,WeatherDisplay:10.37,2013-04-02 07:34:00,
2013-04-02 03:35:00,41.0,16.7,28.03,North,0,0.0,0.0,37,0.00,CLR,SKC,0.00,WeatherDisplay:10.37,2013-04-02 07:35:00,
2013-04-02 03:39:00,41.0,16.7,28.03,NE,45,0.0,0.0,37,0.00,CLR,SKC,0.00,WeatherDisplay:10.37,2013-04-02 07:39:00,
2013-04-02 03:40:00,41.0,16.7,28.03,NE,45,0.0,0.0,37,0.00,CLR,SKC,0.00,WeatherDisplay:10.37,2013-04-02 07:40:00,
2013-04-02 03:44:00,40.6,17.0,28.04,NE,45,0.0,0.0,38,0.00,CLR,SKC,0.00,WeatherDisplay:10.37,2013-04-02 07:44:00,
2013-04-02 03:46:00,40.5,16.8,28.03,NE,45,0.0,0.0,38,0.00,CLR,SKC,0.00,WeatherDisplay:10.37,2013-04-02 07:46:00,
2013-04-02 03:49:00,40.1,17.1,28.03,NE,45,0.0,0.0,39,0.00,CLR,SKC,0.00,WeatherDisplay:10.37,2013-04-02 07:49:00,
2013-04-02 03:51:00,40.3,17.3,28.04,NE,45,0.0,0.0,39,0.00,CLR,SKC,0.00,WeatherDisplay:10.37,2013-04-02 07:51:00,
2013-04-02 03:54:00,40.1,17.1,28.03,NW,315,0.0,0.0,39,0.00,CLR,SKC,0.00,WeatherDisplay:10.37,2013-04-02 07:54:00,
2013-04-02 03:55:00,40.1,17.1,28.03,SW,225,0.0,0.0,39,0.00,CLR,SKC,0.00,WeatherDisplay:10.37,2013-04-02 07:55:00,
2013-04-02 03:56:00,40.1,17.1,28.03,SW,225,0.0,0.0,39,0.00,CLR,SKC,0.00,WeatherDisplay:10.37,2013-04-02 07:56:00,
2013-04-02 03:59:00,40.1,17.1,28.04,North,0,0.0,0.0,39,0.00,CLR,SKC,0.00,WeatherDisplay:10.37,2013-04-02 07:59:00,
2013-04-02 04:00:00,40.1,17.1,28.03,NW,315,0.0,0.0,39,0.00,CLR,SKC,0.00,WeatherDisplay:10.37,2013-04-02 08:00:00,
2013-04-02 04:02:00,40.1,17.1,28.04,NW,315,0.0,0.0,39,0.00,CLR,SKC,0.00,WeatherDisplay:10.37,2013-04-02 08:02:00,
2013-04-02 04:04:00,40.1,17.1,28.04,NW,315,0.0,0.0,39,0.00,CLR,SKC,0.00,WeatherDisplay:10.37,2013-04-02 08:04:00,
2013-04-02 04:05:00,40.1,17.1,28.03,NW,315,0.0,0.0,39,0.00,CLR,SKC,0.00,WeatherDisplay:10.37,2013-04-02 08:05:00,
2013-04-02 04:07:00,40.1,17.1,28.03,NW,315,0.0,0.0,39,0.00,CLR,SKC,0.00,WeatherDisplay:10.37,2013-04-02 08:07:00,
2013-04-02 04:09:00,39.6,18.3,28.04,NE,45,0.0,0.0,42,0.00,CLR,SKC,0.00,WeatherDisplay:10.37,2013-04-02 08:09:00,
2013-04-02 04:10:00,39.6,18.3,28.03,NE,45,0.0,0.0,42,0.00,CLR,SKC,0.00,WeatherDisplay:10.37,2013-04-02 08:10:00,
2013-04-02 04:12:00,39.6,18.9,28.04,NE,45,0.0,0.0,43,0.00,CLR,SKC,0.00,WeatherDisplay:10.37,2013-04-02 08:12:00,
2013-04-02 04:15:00,39.6,18.9,28.04,NE,45,0.0,0.0,43,0.00,CLR,SKC,0.00,WeatherDisplay:10.37,2013-04-02 08:15:00,
2013-04-02 04:16:00,39.6,18.9,28.04,NE,45,0.0,0.0,43,0.00,CLR,SKC,0.00,WeatherDisplay:10.37,2013-04-02 08:16:00,
2013-04-02 04:18:00,39.7,18.5,28.04,NE,45,0.0,0.0,42,0.00,CLR,SKC,0.00,WeatherDisplay:10.37,2013-04-02 08:18:00,
2013-04-02 04:20:00,39.6,18.3,28.03,NE,45,0.0,0.0,42,0.00,CLR,SKC,0.00,WeatherDisplay:10.37,2013-04-02 08:20:00,
2013-04-02 04:21:00,39.6,17.8,28.03,NE,45,0.0,0.0,41,0.00,CLR,SKC,0.00,WeatherDisplay:10.37,2013-04-02 08:21:00,
2013-04-02 04:23:00,39.6,17.8,28.04,NE,45,0.0,0.0,41,0.00,CLR,SKC,0.00,WeatherDisplay:10.37,2013-04-02 08:23:00,
2013-04-02 04:25:00,39.4,17.6,28.04,NE,45,0.0,0.0,41,0.00,CLR,SKC,0.00,WeatherDisplay:10.37,2013-04-02 08:25:00,
2013-04-02 04:26:00,39.4,17.6,28.04,NE,45,0.0,0.0,41,0.00,CLR,SKC,0.00,WeatherDisplay:10.37,2013-04-02 08:26:00,
2013-04-02 04:29:00,39.2,18.0,28.04,NE,45,0.0,0.0,42,0.00,CLR,SKC,0.00,WeatherDisplay:10.37,2013-04-02 08:29:00,
2013-04-02 04:30:00,39.2,18.0,28.04,NE,45,0.0,0.0,42,0.00,CLR,SKC,0.00,WeatherDisplay:10.37,2013-04-02 08:30:00,
2013-04-02 04:31:00,39.2,18.5,28.04,NE,45,0.0,0.0,43,0.00,CLR,SKC,0.00,WeatherDisplay:10.37,2013-04-02 08:31:00,
2013-04-02 04:32:00,39.2,18.5,28.04,NE,45,0.0,0.0,43,0.00,CLR,SKC,0.00,WeatherDisplay:10.37,2013-04-02 08:32:00,
2013-04-02 04:34:00,39.0,18.4,28.04,NE,45,0.0,0.0,43,0.00,CLR,SKC,0.00,WeatherDisplay:10.37,2013-04-02 08:34:00,
2013-04-02 04:36:00,38.8,18.8,28.04,NE,45,0.0,0.0,44,0.00,CLR,SKC,0.00,WeatherDisplay:10.37,2013-04-02 08:36:00,
2013-04-02 04:37:00,38.8,18.8,28.04,NE,45,0.0,0.0,44,0.00,CLR,SKC,0.00,WeatherDisplay:10.37,2013-04-02 08:37:00,
2013-04-02 04:39:00,39.0,18.9,28.05,NE,45,0.0,0.0,44,0.00,CLR,SKC,0.00,WeatherDisplay:10.37,2013-04-02 08:39:00,
2013-04-02 04:41:00,38.8,19.3,28.04,North,0,0.0,0.0,45,0.00,CLR,SKC,0.00,WeatherDisplay:10.37,2013-04-02 08:41:00,
2013-04-02 04:42:00,38.7,19.1,28.04,North,0,0.0,0.0,45,0.00,CLR,SKC,0.00,WeatherDisplay:10.37,2013-04-02 08:42:00,
2013-04-02 04:44:00,38.7,18.6,28.04,North,0,0.0,0.0,44,0.00,CLR,SKC,0.00,WeatherDisplay:10.37,2013-04-02 08:44:00,
2013-04-02 04:46:00,38.5,19.0,28.05,North,0,0.0,0.0,45,0.00,CLR,SKC,0.00,WeatherDisplay:10.37,2013-04-02 08:46:00,
2013-04-02 04:47:00,38.5,19.0,28.04,North,0,0.0,0.0,45,0.00,CLR,SKC,0.00,WeatherDisplay:10.37,2013-04-02 08:47:00,
2013-04-02 04:49:00,38.3,19.3,28.04,North,0,0.0,0.0,46,0.00,CLR,SKC,0.00,WeatherDisplay:10.37,2013-04-02 08:49:00,
2013-04-02 04:51:00,38.1,19.1,28.04,North,0,0.0,0.0,46,0.00,CLR,SKC,0.00,WeatherDisplay:10.37,2013-04-02 08:51:00,
2013-04-02 04:52:00,38.1,19.1,28.05,NW,315,0.0,0.0,46,0.00,CLR,SKC,0.00,WeatherDisplay:10.37,2013-04-02 08:52:00,
2013-04-02 04:53:00,38.1,19.1,28.05,North,0,0.0,0.0,46,0.00,CLR,SKC,0.00,WeatherDisplay:10.37,2013-04-02 08:53:00,
2013-04-02 04:54:00,38.1,19.1,28.05,North,0,0.0,0.0,46,0.00,CLR,SKC,0.00,WeatherDisplay:10.37,2013-04-02 08:54:00,
2013-04-02 04:57:00,38.1,19.1,28.05,NE,45,0.0,0.0,46,0.00,CLR,SKC,0.00,WeatherDisplay:10.37,2013-04-02 08:57:00,
2013-04-02 04:58:00,38.1,19.1,28.05,North,0,0.0,0.0,46,0.00,CLR,SKC,0.00,WeatherDisplay:10.37,2013-04-02 08:58:00,
2013-04-02 04:59:00,38.1,19.1,28.05,North,0,0.0,0.0,46,0.00,CLR,SKC,0.00,WeatherDisplay:10.37,2013-04-02 08:59:00,
2013-04-02 05:02:00,37.9,19.0,28.05,North,0,0.0,0.0,46,0.00,CLR,SKC,0.00,WeatherDisplay:10.37,2013-04-02 09:02:00,
2013-04-02 05:03:00,37.9,19.0,28.05,North,0,0.0,0.0,46,0.00,CLR,SKC,0.00,WeatherDisplay:10.37,2013-04-02 09:03:00,
2013-04-02 05:04:00,37.9,19.0,28.05,North,0,0.0,0.0,46,0.00,CLR,SKC,0.00,WeatherDisplay:10.37,2013-04-02 09:04:00,
2013-04-02 05:07:00,37.8,19.8,28.05,North,0,0.0,0.0,48,0.00,CLR,SKC,0.00,WeatherDisplay:10.37,2013-04-02 09:07:00,
2013-04-02 05:08:00,37.6,19.1,28.05,North,0,0.0,0.0,47,0.00,CLR,SKC,0.00,WeatherDisplay:10.37,2013-04-02 09:08:00,
2013-04-02 05:09:00,37.6,19.1,28.05,North,0,0.0,0.0,47,0.00,CLR,SKC,0.00,WeatherDisplay:10.37,2013-04-02 09:09:00,
2013-04-02 05:13:00,37.4,19.5,28.05,NE,45,0.0,0.0,48,0.00,CLR,SKC,0.00,WeatherDisplay:10.37,2013-04-02 09:13:00,
2013-04-02 05:14:00,37.4,19.5,28.05,NE,45,0.0,0.0,48,0.00,CLR,SKC,0.00,WeatherDisplay:10.37,2013-04-02 09:14:00,
2013-04-02 05:18:00,37.4,20.0,28.05,NE,45,0.0,0.0,49,0.00,CLR,SKC,0.00,WeatherDisplay:10.37,2013-04-02 09:18:00,
2013-04-02 05:19:00,37.4,20.0,28.05,NE,45,0.0,0.0,49,0.00,CLR,SKC,0.00,WeatherDisplay:10.37,2013-04-02 09:19:00,
2013-04-02 05:23:00,37.2,19.8,28.06,NE,45,0.0,0.0,49,0.00,CLR,SKC,0.00,WeatherDisplay:10.37,2013-04-02 09:23:00,
2013-04-02 05:24:00,37.2,19.8,28.06,North,0,0.0,0.0,49,0.00,CLR,SKC,0.00,WeatherDisplay:10.37,2013-04-02 09:24:00,
2013-04-02 05:25:00,37.2,19.8,28.06,North,0,0.0,0.0,49,0.00,CLR,SKC,0.00,WeatherDisplay:10.37,2013-04-02 09:25:00,
2013-04-02 05:28:00,37.4,19.5,28.06,NE,45,0.0,0.0,48,0.00,CLR,SKC,0.00,WeatherDisplay:10.37,2013-04-02 09:28:00,
2013-04-02 05:29:00,37.6,19.6,28.06,NE,45,0.0,0.0,48,0.00,CLR,SKC,0.00,WeatherDisplay:10.37,2013-04-02 09:29:00,
2013-04-02 05:30:00,37.6,19.6,28.07,North,0,0.0,0.0,48,0.00,CLR,SKC,0.00,WeatherDisplay:10.37,2013-04-02 09:30:00,
2013-04-02 05:33:00,37.4,19.5,28.06,NW,315,0.0,0.0,48,0.00,CLR,SKC,0.00,WeatherDisplay:10.37,2013-04-02 09:33:00,
2013-04-02 05:34:00,37.4,19.5,28.06,East,90,0.0,0.0,48,0.00,CLR,SKC,0.00,WeatherDisplay:10.37,2013-04-02 09:34:00,
2013-04-02 05:35:00,37.4,19.5,28.06,East,90,0.0,0.0,48,0.00,CLR,SKC,0.00,WeatherDisplay:10.37,2013-04-02 09:35:00,
2013-04-02 05:38:00,37.4,19.5,28.07,East,90,0.0,0.0,48,0.00,CLR,SKC,0.00,WeatherDisplay:10.37,2013-04-02 09:38:00,
2013-04-02 05:39:00,37.4,19.5,28.07,ENE,68,0.0,0.0,48,0.00,CLR,SKC,0.00,WeatherDisplay:10.37,2013-04-02 09:39:00,
2013-04-02 05:40:00,37.2,18.8,28.07,ENE,68,0.0,0.0,47,0.00,CLR,SKC,0.00,WeatherDisplay:10.37,2013-04-02 09:40:00,
2013-04-02 05:43:00,36.9,19.0,28.07,ENE,68,0.0,0.0,48,0.00,CLR,SKC,0.00,WeatherDisplay:10.37,2013-04-02 09:43:00,
2013-04-02 05:44:00,36.9,19.0,28.07,ENE,68,0.0,0.0,48,0.00,CLR,SKC,0.00,WeatherDisplay:10.37,2013-04-02 09:44:00,
2013-04-02 05:45:00,36.9,19.0,28.07,ENE,68,0.0,0.0,48,0.00,CLR,SKC,0.00,WeatherDisplay:10.37,2013-04-02 09:45:00,
2013-04-02 05:48:00,36.7,18.8,28.07,ENE,68,0.0,0.0,48,0.00,CLR,SKC,0.00,WeatherDisplay:10.37,2013-04-02 09:48:00,
2013-04-02 05:49:00,36.7,19.3,28.07,ENE,68,0.0,0.0,49,0.00,CLR,SKC,0.00,WeatherDisplay:10.37,2013-04-02 09:49:00,
2013-04-02 05:50:00,36.5,19.1,28.07,ENE,68,0.0,0.0,49,0.00,CLR,SKC,0.00,WeatherDisplay:10.37,2013-04-02 09:50:00,
2013-04-02 05:53:00,36.3,19.4,28.07,ENE,68,0.0,0.0,50,0.00,CLR,SKC,0.00,WeatherDisplay:10.37,2013-04-02 09:53:00,
2013-04-02 05:54:00,36.3,19.4,28.07,ENE,68,0.0,0.0,50,0.00,CLR,SKC,0.00,WeatherDisplay:10.37,2013-04-02 09:54:00,
2013-04-02 05:55:00,36.1,19.3,28.08,East,90,0.0,0.0,50,0.00,CLR,SKC,0.00,WeatherDisplay:10.37,2013-04-02 09:55:00,
2013-04-02 05:59:00,36.3,19.4,28.07,ENE,68,0.0,0.0,50,0.00,CLR,SKC,0.00,WeatherDisplay:10.37,2013-04-02 09:59:00,
2013-04-02 06:00:00,36.3,19.4,28.07,ENE,68,0.0,0.0,50,0.00,CLR,SKC,0.00,WeatherDisplay:10.37,2013-04-02 10:00:00,
2013-04-02 06:04:00,36.3,19.4,28.07,ENE,68,0.0,0.0,50,0.00,CLR,SKC,0.00,WeatherDisplay:10.37,2013-04-02 10:04:00,
2013-04-02 06:05:00,36.3,19.4,28.07,ENE,68,0.0,0.0,50,0.00,CLR,SKC,0.00,WeatherDisplay:10.37,2013-04-02 10:05:00,
2013-04-02 06:06:00,36.3,19.4,28.07,ENE,68,0.0,0.0,50,0.00,CLR,SKC,0.00,WeatherDisplay:10.37,2013-04-02 10:06:00,
2013-04-02 06:09:00,35.6,19.7,28.08,North,0,0.0,0.0,52,0.00,CLR,SKC,0.00,WeatherDisplay:10.37,2013-04-02 10:09:00,
2013-04-02 06:10:00,35.6,19.7,28.08,North,0,0.0,0.0,52,0.00,CLR,SKC,0.00,WeatherDisplay:10.37,2013-04-02 10:10:00,
2013-04-02 06:11:00,35.8,19.9,28.08,North,0,0.0,0.0,52,0.00,CLR,SKC,0.00,WeatherDisplay:10.37,2013-04-02 10:11:00,
2013-04-02 06:14:00,35.6,19.7,28.07,NE,45,0.0,0.0,52,0.00,CLR,SKC,0.00,WeatherDisplay:10.37,2013-04-02 10:14:00,
2013-04-02 06:15:00,35.6,19.7,28.08,NE,45,0.0,0.0,52,0.00,CLR,SKC,0.00,WeatherDisplay:10.37,2013-04-02 10:15:00,
2013-04-02 06:16:00,35.6,19.7,28.07,NW,315,0.0,0.0,52,0.00,CLR,SKC,0.00,WeatherDisplay:10.37,2013-04-02 10:16:00,
2013-04-02 06:19:00,35.6,19.7,28.08,NW,315,0.0,0.0,52,0.00,CLR,SKC,0.00,WeatherDisplay:10.37,2013-04-02 10:19:00,
2013-04-02 06:21:00,35.4,20.0,28.07,NW,315,0.0,0.0,53,0.00,CLR,SKC,0.00,WeatherDisplay:10.37,2013-04-02 10:21:00,
2013-04-02 06:22:00,35.4,20.0,28.07,NW,315,0.0,0.0,53,0.00,CLR,SKC,0.00,WeatherDisplay:10.37,2013-04-02 10:22:00,
2013-04-02 06:24:00,35.2,19.8,28.07,North,0,0.0,0.0,53,0.00,CLR,SKC,0.00,WeatherDisplay:10.37,2013-04-02 10:24:00,
2013-04-02 06:25:00,35.2,19.8,28.07,North,0,0.0,0.0,53,0.00,CLR,SKC,0.00,WeatherDisplay:10.37,2013-04-02 10:25:00,
2013-04-02 06:27:00,35.2,19.8,28.08,North,0,0.0,0.0,53,0.00,CLR,SKC,0.00,WeatherDisplay:10.37,2013-04-02 10:27:00,
2013-04-02 06:29:00,35.1,20.1,28.08,North,0,0.0,0.0,54,0.00,CLR,SKC,0.00,WeatherDisplay:10.37,2013-04-02 10:29:00,
2013-04-02 06:30:00,35.1,20.1,28.08,North,0,0.0,0.0,54,0.00,CLR,SKC,0.00,WeatherDisplay:10.37,2013-04-02 10:30:00,
2013-04-02 06:33:00,35.1,20.1,28.08,North,0,0.0,0.0,54,0.00,CLR,SKC,0.00,WeatherDisplay:10.37,2013-04-02 10:33:00,
2013-04-02 06:35:00,34.9,19.9,28.08,North,0,0.0,0.0,54,0.00,CLR,SKC,0.00,WeatherDisplay:10.37,2013-04-02 10:35:00,
2013-04-02 06:38:00,34.9,19.9,28.08,North,0,0.0,0.0,54,0.00,CLR,SKC,0.00,WeatherDisplay:10.37,2013-04-02 10:38:00,
2013-04-02 06:40:00,34.7,20.2,28.08,North,0,0.0,0.0,55,0.00,CLR,SKC,0.00,WeatherDisplay:10.37,2013-04-02 10:40:00,
2013-04-02 06:43:00,34.7,20.2,28.08,North,0,0.0,0.0,55,0.00,CLR,SKC,0.00,WeatherDisplay:10.37,2013-04-02 10:43:00,
2013-04-02 06:45:00,34.7,20.2,28.09,NE,45,0.0,0.0,55,0.00,CLR,SKC,0.00,WeatherDisplay:10.37,2013-04-02 10:45:00,
2013-04-02 06:48:00,34.5,20.0,28.09,North,0,0.0,0.0,55,0.00,CLR,SKC,0.00,WeatherDisplay:10.37,2013-04-02 10:48:00,
2013-04-02 06:50:00,34.5,20.0,28.09,North,0,0.0,0.0,55,0.00,CLR,SKC,0.00,WeatherDisplay:10.37,2013-04-02 10:50:00,
2013-04-02 06:51:00,34.5,20.0,28.09,North,0,0.0,0.0,55,0.00,CLR,SKC,0.00,WeatherDisplay:10.37,2013-04-02 10:51:00,
2013-04-02 06:53:00,34.3,19.8,28.09,NW,315,0.0,0.0,55,0.00,CLR,SKC,0.00,WeatherDisplay:10.37,2013-04-02 10:53:00,
2013-04-02 06:55:00,34.3,19.8,28.09,NW,315,0.0,0.0,55,0.00,CLR,SKC,0.00,WeatherDisplay:10.37,2013-04-02 10:55:00,
2013-04-02 06:56:00,34.3,19.8,28.09,NW,315,0.0,0.0,55,0.00,CLR,SKC,0.00,WeatherDisplay:10.37,2013-04-02 10:56:00,
2013-04-02 06:58:00,34.3,19.8,28.09,NW,315,0.0,0.0,55,0.00,CLR,SKC,0.00,WeatherDisplay:10.37,2013-04-02 10:58:00,
2013-04-02 06:59:00,34.3,19.8,28.09,NW,315,0.0,0.0,55,0.00,CLR,SKC,0.00,WeatherDisplay:10.37,2013-04-02 10:59:00,
2013-04-02 07:00:00,34.3,19.8,28.09,NW,315,0.0,0.0,55,0.00,CLR,SKC,0.00,WeatherDisplay:10.37,2013-04-02 11:00:00,
2013-04-02 07:02:00,34.3,19.8,28.09,NW,315,0.0,0.0,55,0.00,CLR,SKC,0.00,WeatherDisplay:10.37,2013-04-02 11:02:00,
2013-04-02 07:04:00,34.3,19.8,28.09,NW,315,0.0,0.0,55,0.00,CLR,SKC,0.00,WeatherDisplay:10.37,2013-04-02 11:04:00,
2013-04-02 07:05:00,34.3,19.8,28.09,NW,315,0.0,0.0,55,0.00,CLR,SKC,0.00,WeatherDisplay:10.37,2013-04-02 11:05:00,
2013-04-02 07:07:00,34.3,19.8,28.10,NW,315,0.0,0.0,55,0.00,CLR,SKC,0.00,WeatherDisplay:10.37,2013-04-02 11:07:00,
2013-04-02 07:09:00,34.3,19.8,28.10,North,0,0.0,0.0,55,0.00,CLR,SKC,0.00,WeatherDisplay:10.37,2013-04-02 11:09:00,
2013-04-02 07:10:00,34.3,19.8,28.10,North,0,0.0,0.0,55,0.00,CLR,SKC,0.00,WeatherDisplay:10.37,2013-04-02 11:10:00,
2013-04-02 07:12:00,34.3,19.8,28.10,North,0,0.0,0.0,55,0.00,CLR,SKC,0.00,WeatherDisplay:10.37,2013-04-02 11:12:00,
2013-04-02 07:14:00,34.2,19.7,28.10,North,0,0.0,0.0,55,0.00,CLR,SKC,0.00,WeatherDisplay:10.37,2013-04-02 11:14:00,
2013-04-02 07:15:00,34.2,19.7,28.10,North,0,0.0,0.0,55,0.00,CLR,SKC,0.00,WeatherDisplay:10.37,2013-04-02 11:15:00,
2013-04-02 07:16:00,34.2,19.7,28.10,NE,45,0.0,0.0,55,0.00,CLR,SKC,0.00,WeatherDisplay:10.37,2013-04-02 11:16:00,
2013-04-02 07:17:00,34.2,19.7,28.11,NE,45,0.0,0.0,55,0.00,CLR,SKC,0.00,WeatherDisplay:10.37,2013-04-02 11:17:00,
2013-04-02 07:19:00,34.2,19.7,28.10,NE,45,0.0,0.0,55,0.00,CLR,SKC,0.00,WeatherDisplay:10.37,2013-04-02 11:19:00,
2013-04-02 07:20:00,34.2,19.7,28.11,NE,45,0.0,0.0,55,0.00,CLR,SKC,0.00,WeatherDisplay:10.37,2013-04-02 11:20:00,
2013-04-02 07:22:00,34.2,19.7,28.11,NE,45,0.0,0.0,55,0.00,CLR,SKC,0.00,WeatherDisplay:10.37,2013-04-02 11:22:00,
2013-04-02 07:24:00,34.2,19.7,28.11,NE,45,0.0,0.0,55,0.00,CLR,SKC,0.00,WeatherDisplay:10.37,2013-04-02 11:24:00,
2013-04-02 07:25:00,34.0,19.5,28.11,NE,45,0.0,0.0,55,0.00,CLR,SKC,0.00,WeatherDisplay:10.37,2013-04-02 11:25:00,
2013-04-02 07:27:00,34.0,19.5,28.11,NE,45,0.0,0.0,55,0.00,CLR,SKC,0.00,WeatherDisplay:10.37,2013-04-02 11:27:00,
2013-04-02 07:28:00,34.0,19.5,28.11,NE,45,0.0,0.0,55,0.00,CLR,SKC,0.00,WeatherDisplay:10.37,2013-04-02 11:28:00,
2013-04-02 07:29:00,34.0,19.9,28.11,NE,45,0.0,0.0,56,0.00,CLR,SKC,0.00,WeatherDisplay:10.37,2013-04-02 11:29:00,
2013-04-02 07:30:00,34.0,19.9,28.11,NE,45,0.0,0.0,56,0.00,CLR,SKC,0.00,WeatherDisplay:10.37,2013-04-02 11:30:00,
2013-04-02 07:32:00,34.0,19.9,28.12,NE,45,0.0,0.0,56,0.00,CLR,SKC,0.00,WeatherDisplay:10.37,2013-04-02 11:32:00,
2013-04-02 07:33:00,34.0,19.9,28.11,North,0,0.0,0.0,56,0.00,CLR,SKC,0.00,WeatherDisplay:10.37,2013-04-02 11:33:00,
2013-04-02 07:34:00,33.8,19.7,28.12,North,0,0.0,0.0,56,0.00,CLR,SKC,0.00,WeatherDisplay:10.37,2013-04-02 11:34:00,
2013-04-02 07:35:00,33.8,19.7,28.11,NE,45,0.0,0.0,56,0.00,CLR,SKC,0.00,WeatherDisplay:10.37,2013-04-02 11:35:00,
2013-04-02 07:37:00,33.8,19.7,28.12,NE,45,0.0,0.0,56,0.00,CLR,SKC,0.00,WeatherDisplay:10.37,2013-04-02 11:37:00,
2013-04-02 07:38:00,33.8,19.7,28.12,NE,45,0.0,0.0,56,0.00,CLR,SKC,0.00,WeatherDisplay:10.37,2013-04-02 11:38:00,
2013-04-02 07:39:00,33.8,19.7,28.12,NE,45,0.0,0.0,56,0.00,CLR,SKC,0.00,WeatherDisplay:10.37,2013-04-02 11:39:00,
2013-04-02 07:41:00,33.8,19.7,28.12,NE,45,0.0,0.0,56,0.00,CLR,SKC,0.00,WeatherDisplay:10.37,2013-04-02 11:41:00,
2013-04-02 07:43:00,33.8,19.7,28.12,North,0,0.0,0.0,56,0.00,CLR,SKC,0.00,WeatherDisplay:10.37,2013-04-02 11:43:00,
2013-04-02 07:44:00,33.8,19.7,28.12,North,0,0.0,0.0,56,0.00,CLR,SKC,0.00,WeatherDisplay:10.37,2013-04-02 11:44:00,
2013-04-02 07:46:00,33.8,19.7,28.12,North,0,0.0,0.0,56,0.00,CLR,SKC,0.00,WeatherDisplay:10.37,2013-04-02 11:46:00,
2013-04-02 07:48:00,33.8,19.7,28.12,NW,315,0.0,0.0,56,0.00,CLR,SKC,0.00,WeatherDisplay:10.37,2013-04-02 11:48:00,
2013-04-02 07:50:00,33.8,19.7,28.13,NW,315,0.0,0.0,56,0.00,CLR,SKC,0.00,WeatherDisplay:10.37,2013-04-02 11:50:00,
2013-04-02 07:52:00,33.8,19.7,28.12,NW,315,0.0,0.0,56,0.00,CLR,SKC,0.00,WeatherDisplay:10.37,2013-04-02 11:52:00,
2013-04-02 07:53:00,34.0,19.9,28.12,NW,315,0.0,0.0,56,0.00,CLR,SKC,0.00,WeatherDisplay:10.37,2013-04-02 11:53:00,
2013-04-02 07:54:00,34.0,19.9,28.12,NW,315,0.0,0.0,56,0.00,CLR,SKC,0.00,WeatherDisplay:10.37,2013-04-02 11:54:00,
2013-04-02 07:55:00,34.0,19.9,28.12,North,0,0.0,0.0,56,0.00,CLR,SKC,0.00,WeatherDisplay:10.37,2013-04-02 11:55:00,
2013-04-02 07:57:00,34.0,19.9,28.12,North,0,0.0,0.0,56,0.00,CLR,SKC,0.00,WeatherDisplay:10.37,2013-04-02 11:57:00,
2013-04-02 07:59:00,34.0,19.9,28.11,North,0,0.0,0.0,56,0.00,CLR,SKC,0.00,WeatherDisplay:10.37,2013-04-02 11:59:00,
2013-04-02 08:00:00,34.0,19.9,28.11,North,0,0.0,0.0,56,0.00,CLR,SKC,0.00,WeatherDisplay:10.37,2013-04-02 12:00:00,
2013-04-02 08:02:00,34.0,19.9,28.11,North,0,0.0,0.0,56,0.00,CLR,SKC,0.00,WeatherDisplay:10.37,2013-04-02 12:02:00,
2013-04-02 08:04:00,34.0,19.9,28.11,North,0,0.0,0.0,56,0.00,CLR,SKC,0.00,WeatherDisplay:10.37,2013-04-02 12:04:00,
2013-04-02 08:06:00,34.0,19.9,28.11,North,0,0.0,0.0,56,0.00,CLR,SKC,0.00,WeatherDisplay:10.37,2013-04-02 12:06:00,
2013-04-02 08:07:00,34.0,19.9,28.11,North,0,0.0,0.0,56,0.00,CLR,SKC,0.00,WeatherDisplay:10.37,2013-04-02 12:07:00,
2013-04-02 08:09:00,34.0,20.3,28.11,North,0,0.0,0.0,57,0.00,CLR,SKC,0.00,WeatherDisplay:10.37,2013-04-02 12:09:00,
2013-04-02 08:11:00,33.8,20.2,28.12,North,0,0.0,0.0,57,0.00,CLR,SKC,0.00,WeatherDisplay:10.37,2013-04-02 12:11:00,
2013-04-02 08:12:00,34.2,20.5,28.12,North,0,0.0,0.0,57,0.00,CLR,SKC,0.00,WeatherDisplay:10.37,2013-04-02 12:12:00,
2013-04-02 08:14:00,34.3,20.7,28.12,North,0,0.0,0.0,57,0.00,CLR,SKC,0.00,WeatherDisplay:10.37,2013-04-02 12:14:00,
2013-04-02 08:17:00,34.5,20.4,28.12,North,0,0.0,0.0,56,0.00,CLR,SKC,0.00,WeatherDisplay:10.37,2013-04-02 12:17:00,
2013-04-02 08:18:00,34.5,20.4,28.12,North,0,0.0,0.0,56,0.00,CLR,SKC,0.00,WeatherDisplay:10.37,2013-04-02 12:18:00,
2013-04-02 08:19:00,34.7,20.6,28.12,North,0,0.0,0.0,56,0.00,CLR,SKC,0.00,WeatherDisplay:10.37,2013-04-02 12:19:00,
2013-04-02 08:23:00,35.1,20.9,28.12,NE,45,0.0,0.0,56,0.00,CLR,SKC,0.00,WeatherDisplay:10.37,2013-04-02 12:23:00,
2013-04-02 08:25:00,35.2,21.1,28.11,NE,45,0.0,0.0,56,0.00,CLR,SKC,0.00,WeatherDisplay:10.37,2013-04-02 12:25:00,
2013-04-02 08:28:00,35.6,21.4,28.11,NE,45,0.0,0.0,56,0.00,CLR,SKC,0.00,WeatherDisplay:10.37,2013-04-02 12:28:00,
2013-04-02 08:30:00,35.8,21.6,28.11,NE,45,0.0,0.0,56,0.00,CLR,SKC,0.00,WeatherDisplay:10.37,2013-04-02 12:30:00,
2013-04-02 08:33:00,36.1,21.5,28.11,NE,45,0.0,0.0,55,0.00,CLR,SKC,0.00,WeatherDisplay:10.37,2013-04-02 12:33:00,
2013-04-02 08:35:00,36.1,21.5,28.11,NE,45,0.0,0.0,55,0.00,CLR,SKC,0.00,WeatherDisplay:10.37,2013-04-02 12:35:00,
2013-04-02 08:38:00,36.9,20.9,28.11,North,0,0.0,0.0,52,0.00,CLR,SKC,0.00,WeatherDisplay:10.37,2013-04-02 12:38:00,
2013-04-02 08:39:00,37.2,20.7,28.11,North,0,0.0,0.0,51,0.00,CLR,SKC,0.00,WeatherDisplay:10.37,2013-04-02 12:39:00,
2013-04-02 08:40:00,37.2,20.7,28.11,North,0,0.0,0.0,51,0.00,CLR,SKC,0.00,WeatherDisplay:10.37,2013-04-02 12:40:00,
2013-04-02 08:44:00,37.8,21.2,28.12,SW,225,0.0,0.0,51,0.00,CLR,SKC,0.00,WeatherDisplay:10.37,2013-04-02 12:44:00,
2013-04-02 08:45:00,37.9,21.4,28.12,SW,225,0.0,0.0,51,0.00,CLR,SKC,0.00,WeatherDisplay:10.37,2013-04-02 12:45:00,
2013-04-02 08:49:00,38.3,20.3,28.12,SE,135,0.0,0.0,48,0.00,CLR,SKC,0.00,WeatherDisplay:10.37,2013-04-02 12:49:00,
2013-04-02 08:50:00,38.5,20.0,28.11,SE,135,0.0,0.0,47,0.00,CLR,SKC,0.00,WeatherDisplay:10.37,2013-04-02 12:50:00,
2013-04-02 08:54:00,38.8,18.8,28.12,SE,135,0.0,0.0,44,0.00,CLR,SKC,0.00,WeatherDisplay:10.37,2013-04-02 12:54:00,
2013-04-02 08:55:00,38.8,19.3,28.12,SE,135,0.0,0.0,45,0.00,CLR,SKC,0.00,WeatherDisplay:10.37,2013-04-02 12:55:00,
2013-04-02 08:56:00,38.8,19.3,28.12,SE,135,0.0,0.0,45,0.00,CLR,SKC,0.00,WeatherDisplay:10.37,2013-04-02 12:56:00,
2013-04-02 08:59:00,39.6,17.2,28.12,SW,225,0.0,0.0,40,0.00,CLR,SKC,0.00,WeatherDisplay:10.37,2013-04-02 12:59:00,
2013-04-02 09:01:00,39.7,16.8,28.12,South,180,0.0,0.0,39,0.00,CLR,SKC,0.00,WeatherDisplay:10.37,2013-04-02 13:01:00,
2013-04-02 09:05:00,39.7,16.8,28.13,South,180,0.0,0.0,39,0.00,CLR,SKC,0.00,WeatherDisplay:10.37,2013-04-02 13:05:00,
2013-04-02 09:06:00,39.7,16.8,28.12,South,180,0.0,0.0,39,0.00,CLR,SKC,0.00,WeatherDisplay:10.37,2013-04-02 13:06:00,
2013-04-02 09:07:00,39.7,16.8,28.13,South,180,0.0,0.0,39,0.00,CLR,SKC,0.00,WeatherDisplay:10.37,2013-04-02 13:07:00,
2013-04-02 09:10:00,40.8,15.2,28.13,SW,225,3.5,0.0,35,0.00,CLR,SKC,0.00,WeatherDisplay:10.37,2013-04-02 13:10:00,
2013-04-02 09:11:00,40.8,15.2,28.13,South,180,2.3,2.3,35,0.00,CLR,SKC,0.00,WeatherDisplay:10.37,2013-04-02 13:11:00,
2013-04-02 09:12:00,41.0,14.1,28.12,SW,225,3.5,3.5,33,0.00,CLR,SKC,0.00,WeatherDisplay:10.37,2013-04-02 13:12:00,
2013-04-02 09:15:00,41.0,13.4,28.12,SW,225,2.3,2.3,32,0.00,CLR,SKC,0.00,WeatherDisplay:10.37,2013-04-02 13:15:00,
2013-04-02 09:16:00,41.2,12.8,28.12,SW,225,2.2,2.2,31,0.00,CLR,SKC,0.00,WeatherDisplay:10.37,2013-04-02 13:16:00,
2013-04-02 09:17:00,41.4,12.9,28.12,South,180,2.3,2.3,31,0.00,CLR,SKC,0.00,WeatherDisplay:10.37,2013-04-02 13:17:00,
2013-04-02 09:20:00,41.7,11.7,28.12,SE,135,3.5,3.5,29,0.00,CLR,SKC,0.00,WeatherDisplay:10.37,2013-04-02 13:20:00,
2013-04-02 09:22:00,41.9,9.5,28.12,SW,225,3.5,3.5,26,0.00,CLR,SKC,0.00,WeatherDisplay:10.37,2013-04-02 13:22:00,
2013-04-02 09:23:00,42.1,8.7,28.13,SW,225,3.5,3.5,25,0.00,CLR,SKC,0.00,WeatherDisplay:10.37,2013-04-02 13:23:00,
2013-04-02 09:25:00,42.4,8.1,28.12,South,180,3.5,3.5,24,0.00,CLR,SKC,0.00,WeatherDisplay:10.37,2013-04-02 13:25:00,
2013-04-02 09:27:00,42.6,6.4,28.12,SE,135,3.5,3.5,22,0.00,CLR,SKC,0.00,WeatherDisplay:10.37,2013-04-02 13:27:00,
2013-04-02 09:28:00,42.6,6.4,28.12,SE,135,5.8,5.8,22,0.00,CLR,SKC,0.00,WeatherDisplay:10.37,2013-04-02 13:28:00,
2013-04-02 09:30:00,42.8,6.5,28.13,SW,225,4.6,4.6,22,0.00,CLR,SKC,0.00,WeatherDisplay:10.37,2013-04-02 13:30:00,
2013-04-02 09:33:00,42.8,4.4,28.13,SW,225,3.5,3.5,20,0.00,CLR,SKC,0.00,WeatherDisplay:10.37,2013-04-02 13:33:00,
2013-04-02 09:34:00,43.3,4.9,28.13,South,180,3.5,3.5,20,0.00,CLR,SKC,0.00,WeatherDisplay:10.37,2013-04-02 13:34:00,
2013-04-02 09:35:00,43.5,3.9,28.12,SW,225,3.5,3.5,19,0.00,CLR,SKC,0.00,WeatherDisplay:10.37,2013-04-02 13:35:00,
2013-04-02 09:38:00,43.9,3.0,28.13,SW,225,3.5,3.5,18,0.00,CLR,SKC,0.00,WeatherDisplay:10.37,2013-04-02 13:38:00,
2013-04-02 09:39:00,43.9,-0.9,28.13,South,180,3.5,3.5,15,0.00,CLR,SKC,0.00,WeatherDisplay:10.37,2013-04-02 13:39:00,
2013-04-02 09:40:00,44.1,-2.2,28.13,SW,225,3.5,3.5,14,0.00,CLR,SKC,0.00,WeatherDisplay:10.37,2013-04-02 13:40:00,
2013-04-02 09:43:00,44.2,-2.1,28.13,SSE,158,3.5,3.5,14,0.00,CLR,SKC,0.00,WeatherDisplay:10.37,2013-04-02 13:43:00,
2013-04-02 09:44:00,44.6,-5.0,28.13,SE,135,2.3,2.3,12,0.00,CLR,SKC,0.00,WeatherDisplay:10.37,2013-04-02 13:44:00,
2013-04-02 09:45:00,44.8,-4.9,28.14,SW,225,3.5,0.0,12,0.00,CLR,SKC,0.00,WeatherDisplay:10.37,2013-04-02 13:45:00,
2013-04-02 09:48:00,45.3,-4.4,28.13,West,270,3.5,3.5,12,0.00,CLR,SKC,0.00,WeatherDisplay:10.37,2013-04-02 13:48:00,
2013-04-02 09:50:00,45.7,-4.1,28.14,SW,225,3.5,3.5,12,0.00,CLR,SKC,0.00,WeatherDisplay:10.37,2013-04-02 13:50:00,
2013-04-02 09:51:00,45.9,-4.0,28.13,SW,225,3.5,3.5,12,0.00,CLR,SKC,0.00,WeatherDisplay:10.37,2013-04-02 13:51:00,
2013-04-02 09:53:00,46.0,-3.9,28.13,East,90,2.3,0.0,12,0.00,CLR,SKC,0.00,WeatherDisplay:10.37,2013-04-02 13:53:00,
2013-04-02 09:55:00,46.4,-3.6,28.13,SW,225,5.8,5.8,12,0.00,CLR,SKC,0.00,WeatherDisplay:10.37,2013-04-02 13:55:00,
2013-04-02 09:56:00,46.4,-3.6,28.13,SW,225,5.8,5.8,12,0.00,CLR,SKC,0.00,WeatherDisplay:10.37,2013-04-02 13:56:00,
2013-04-02 09:58:00,46.8,-3.3,28.13,NE,45,0.0,0.0,12,0.00,CLR,SKC,0.00,WeatherDisplay:10.37,2013-04-02 13:58:00,
2013-04-02 09:59:00,46.9,-3.1,28.13,NNW,338,0.0,0.0,12,0.00,CLR,SKC,0.00,WeatherDisplay:10.37,2013-04-02 13:59:00,
2013-04-02 10:00:00,46.9,-3.1,28.13,North,0,0.0,0.0,12,0.00,CLR,SKC,0.00,WeatherDisplay:10.37,2013-04-02 14:00:00,
2013-04-02 10:01:00,46.9,-3.1,28.13,North,0,0.0,0.0,12,0.00,CLR,SKC,0.00,WeatherDisplay:10.37,2013-04-02 14:01:00,
2013-04-02 10:03:00,46.9,-3.1,28.14,North,0,0.0,0.0,12,0.00,CLR,SKC,0.00,WeatherDisplay:10.37,2013-04-02 14:03:00,
2013-04-02 10:04:00,46.9,-3.1,28.14,North,0,0.0,0.0,12,0.00,CLR,SKC,0.00,WeatherDisplay:10.37,2013-04-02 14:04:00,
2013-04-02 10:05:00,46.9,-3.1,28.14,North,0,0.0,0.0,12,0.00,CLR,SKC,0.00,WeatherDisplay:10.37,2013-04-02 14:05:00,
2013-04-02 10:06:00,46.9,-3.1,28.14,North,0,0.0,0.0,12,0.00,CLR,SKC,0.00,WeatherDisplay:10.37,2013-04-02 14:06:00,
2013-04-02 10:08:00,47.1,-3.0,28.14,North,0,3.5,3.5,12,0.00,CLR,SKC,0.00,WeatherDisplay:10.37,2013-04-02 14:08:00,
2013-04-02 10:09:00,47.1,-3.0,28.14,NW,315,4.6,4.6,12,0.00,CLR,SKC,0.00,WeatherDisplay:10.37,2013-04-02 14:09:00,
2013-04-02 10:10:00,47.1,-3.0,28.14,West,270,4.6,4.6,12,0.00,CLR,SKC,0.00,WeatherDisplay:10.37,2013-04-02 14:10:00,
2013-04-02 10:12:00,47.3,-2.9,28.14,NW,315,3.5,3.5,12,0.00,CLR,SKC,0.00,WeatherDisplay:10.37,2013-04-02 14:12:00,
2013-04-02 10:13:00,47.5,-2.7,28.14,NW,315,3.5,3.5,12,0.00,CLR,SKC,0.00,WeatherDisplay:10.37,2013-04-02 14:13:00,
2013-04-02 10:14:00,47.6,-2.6,28.14,WNW,303,1.0,5.0,12,0.00,CLR,SKC,0.00,WeatherDisplay:10.37,2013-04-02 14:14:00,
2013-04-02 10:16:00,47.8,-2.4,28.13,NNW,338,8.1,8.1,12,0.00,CLR,SKC,0.00,WeatherDisplay:10.37,2013-04-02 14:16:00,
2013-04-02 10:17:00,47.7,-2.6,28.14,NW,315,8.1,8.1,12,0.00,CLR,SKC,0.00,WeatherDisplay:10.37,2013-04-02 14:17:00,
2013-04-02 10:19:00,47.7,-2.6,28.14,West,270,4.6,4.6,12,0.00,CLR,SKC,0.00,WeatherDisplay:10.37,2013-04-02 14:19:00,
2013-04-02 10:20:00,48.0,-2.3,28.14,SW,225,4.6,4.6,12,0.00,CLR,SKC,0.00,WeatherDisplay:10.37,2013-04-02 14:20:00,
2013-04-02 10:21:00,48.2,-2.1,28.14,SW,225,8.1,8.1,12,0.00,CLR,SKC,0.00,WeatherDisplay:10.37,2013-04-02 14:21:00,
2013-04-02 10:22:00,48.2,-2.1,28.14,NW,315,5.8,5.8,12,0.00,CLR,SKC,0.00,WeatherDisplay:10.37,2013-04-02 14:22:00,
2013-04-02 10:24:00,48.4,-2.0,28.14,West,270,2.3,2.3,12,0.00,CLR,SKC,0.00,WeatherDisplay:10.37,2013-04-02 14:24:00,
2013-04-02 10:25:00,48.4,-2.0,28.14,West,270,3.5,3.5,12,0.00,CLR,SKC,0.00,WeatherDisplay:10.37,2013-04-02 14:25:00,
2013-04-02 10:26:00,48.6,-1.9,28.14,North,0,5.8,5.8,12,0.00,CLR,SKC,0.00,WeatherDisplay:10.37,2013-04-02 14:26:00,
2013-04-02 10:28:00,48.7,-1.7,28.14,NE,45,8.1,0.0,12,0.00,CLR,SKC,0.00,WeatherDisplay:10.37,2013-04-02 14:28:00,
2013-04-02 10:29:00,49.1,-1.4,28.14,ENE,68,2.3,0.0,12,0.00,CLR,SKC,0.00,WeatherDisplay:10.37,2013-04-02 14:29:00,
2013-04-02 10:30:00,49.5,-1.2,28.14,ENE,68,2.3,0.0,12,0.00,CLR,SKC,0.00,WeatherDisplay:10.37,2013-04-02 14:30:00,
2013-04-02 10:31:00,50.5,-0.3,28.14,North,0,2.3,2.3,12,0.00,CLR,SKC,0.00,WeatherDisplay:10.37,2013-04-02 14:31:00,
2013-04-02 10:33:00,50.9,0.0,28.14,North,0,5.8,5.8,12,0.00,CLR,SKC,0.00,WeatherDisplay:10.37,2013-04-02 14:33:00,
2013-04-02 10:34:00,51.1,0.1,28.14,North,0,5.8,5.8,12,0.00,CLR,SKC,0.00,WeatherDisplay:10.37,2013-04-02 14:34:00,
2013-04-02 10:35:00,51.1,0.1,28.14,North,0,5.8,5.8,12,0.00,CLR,SKC,0.00,WeatherDisplay:10.37,2013-04-02 14:35:00,
2013-04-02 10:37:00,50.9,0.0,28.13,NW,315,5.8,0.0,12,0.00,CLR,SKC,0.00,WeatherDisplay:10.37,2013-04-02 14:37:00,
2013-04-02 10:38:00,50.7,-0.2,28.13,West,270,0.0,0.0,12,0.00,CLR,SKC,0.00,WeatherDisplay:10.37,2013-04-02 14:38:00,
2013-04-02 10:39:00,50.2,-0.6,28.13,South,180,0.0,0.0,12,0.00,CLR,SKC,0.00,WeatherDisplay:10.37,2013-04-02 14:39:00,
2013-04-02 10:40:00,50.2,-0.6,28.13,South,180,0.0,0.0,12,0.00,CLR,SKC,0.00,WeatherDisplay:10.37,2013-04-02 14:40:00,
2013-04-02 10:42:00,50.5,-0.3,28.14,South,180,0.0,0.0,12,0.00,CLR,SKC,0.00,WeatherDisplay:10.37,2013-04-02 14:42:00,
2013-04-02 10:43:00,50.5,-0.3,28.14,North,0,0.0,0.0,12,0.00,CLR,SKC,0.00,WeatherDisplay:10.37,2013-04-02 14:43:00,
2013-04-02 10:45:00,50.7,-0.2,28.13,NE,45,0.0,0.0,12,0.00,CLR,SKC,0.00,WeatherDisplay:10.37,2013-04-02 14:45:00,
2013-04-02 10:47:00,50.0,-0.7,28.14,NW,315,0.0,0.0,12,0.00,CLR,SKC,0.00,WeatherDisplay:10.37,2013-04-02 14:47:00,
2013-04-02 10:48:00,50.2,-0.6,28.13,NW,315,0.0,0.0,12,0.00,CLR,SKC,0.00,WeatherDisplay:10.37,2013-04-02 14:48:00,
2013-04-02 10:50:00,50.4,-0.4,28.14,NW,315,0.0,0.0,12,0.00,CLR,SKC,0.00,WeatherDisplay:10.37,2013-04-02 14:50:00,
2013-04-02 10:52:00,50.9,0.0,28.14,NW,315,0.0,0.0,12,0.00,CLR,SKC,0.00,WeatherDisplay:10.37,2013-04-02 14:52:00,
2013-04-02 10:53:00,50.9,0.0,28.14,NW,315,0.0,0.0,12,0.00,CLR,SKC,0.00,WeatherDisplay:10.37,2013-04-02 14:53:00,
2013-04-02 10:55:00,50.9,0.0,28.14,NE,45,0.0,0.0,12,0.00,CLR,SKC,0.00,WeatherDisplay:10.37,2013-04-02 14:55:00,
2013-04-02 10:58:00,50.7,-0.2,28.14,West,270,6.9,6.9,12,0.00,CLR,SKC,0.00,WeatherDisplay:10.37,2013-04-02 14:58:00,
2013-04-02 11:00:00,51.3,0.3,28.14,West,270,5.8,5.8,12,0.00,CLR,SKC,0.00,WeatherDisplay:10.37,2013-04-02 15:00:00,
2013-04-02 11:03:00,51.4,0.4,28.14,SW,225,4.6,4.6,12,0.00,CLR,SKC,0.00,WeatherDisplay:10.37,2013-04-02 15:03:00,
2013-04-02 11:05:00,51.4,0.4,28.14,SW,225,4.6,4.6,12,0.00,CLR,SKC,0.00,WeatherDisplay:10.37,2013-04-02 15:05:00,
2013-04-02 11:08:00,53.4,2.0,28.14,South,180,5.8,5.8,12,0.00,CLR,SKC,0.00,WeatherDisplay:10.37,2013-04-02 15:08:00,
2013-04-02 11:09:00,53.4,2.0,28.14,SW,225,5.8,5.8,12,0.00,CLR,SKC,0.00,WeatherDisplay:10.37,2013-04-02 15:09:00,
2013-04-02 11:10:00,53.4,2.0,28.14,West,270,5.8,5.8,12,0.00,CLR,SKC,0.00,WeatherDisplay:10.37,2013-04-02 15:10:00,
2013-04-02 11:11:00,53.6,2.1,28.13,South,180,5.8,5.8,12,0.00,CLR,SKC,0.00,WeatherDisplay:10.37,2013-04-02 15:11:00,
2013-04-02 11:13:00,53.4,2.0,28.14,North,0,5.8,5.8,12,0.00,CLR,SKC,0.00,WeatherDisplay:10.37,2013-04-02 15:13:00,
2013-04-02 11:14:00,53.6,2.1,28.14,SW,225,5.8,5.8,12,0.00,CLR,SKC,0.00,WeatherDisplay:10.37,2013-04-02 15:14:00,
2013-04-02 11:15:00,53.4,2.0,28.14,WNW,292,5.8,5.8,12,0.00,CLR,SKC,0.00,WeatherDisplay:10.37,2013-04-02 15:15:00,
2013-04-02 11:16:00,52.9,1.5,28.14,South,180,5.8,5.8,12,0.00,CLR,SKC,0.00,WeatherDisplay:10.37,2013-04-02 15:16:00,
2013-04-02 11:18:00,52.7,1.4,28.14,SE,135,6.9,6.9,12,0.00,CLR,SKC,0.00,WeatherDisplay:10.37,2013-04-02 15:18:00,
2013-04-02 11:19:00,52.7,1.4,28.13,South,180,6.9,0.0,12,0.00,CLR,SKC,0.00,WeatherDisplay:10.37,2013-04-02 15:19:00,
2013-04-02 11:21:00,52.9,1.5,28.14,West,270,0.0,1.6,12,0.00,CLR,SKC,0.00,WeatherDisplay:10.37,2013-04-02 15:21:00,
2013-04-02 11:22:00,52.5,1.3,28.14,West,270,5.8,5.8,12,0.00,CLR,SKC,0.00,WeatherDisplay:10.37,2013-04-02 15:22:00,
2013-04-02 11:23:00,52.5,1.3,28.14,SW,225,5.8,5.8,12,0.00,CLR,SKC,0.00,WeatherDisplay:10.37,2013-04-02 15:23:00,
2013-04-02 11:24:00,52.5,1.3,28.14,SW,225,5.8,5.8,12,0.00,CLR,SKC,0.00,WeatherDisplay:10.37,2013-04-02 15:24:00,
2013-04-02 11:26:00,52.5,1.3,28.14,West,270,5.8,5.8,12,0.00,CLR,SKC,0.00,WeatherDisplay:10.37,2013-04-02 15:26:00,
2013-04-02 11:28:00,52.7,1.4,28.14,NW,315,8.1,8.1,12,0.00,CLR,SKC,0.00,WeatherDisplay:10.37,2013-04-02 15:28:00,
2013-04-02 11:29:00,53.1,1.7,28.14,South,180,8.1,8.1,12,0.00,CLR,SKC,0.00,WeatherDisplay:10.37,2013-04-02 15:29:00,
2013-04-02 11:32:00,53.4,2.0,28.14,SW,225,6.9,6.9,12,0.00,CLR,SKC,0.00,WeatherDisplay:10.37,2013-04-02 15:32:00,
2013-04-02 11:33:00,53.4,2.0,28.14,West,270,6.9,6.9,12,0.00,CLR,SKC,0.00,WeatherDisplay:10.37,2013-04-02 15:33:00,
2013-04-02 11:34:00,53.6,2.1,28.13,SW,225,6.9,6.9,12,0.00,CLR,SKC,0.00,WeatherDisplay:10.37,2013-04-02 15:34:00,
2013-04-02 11:37:00,53.6,2.1,28.14,West,270,8.1,8.1,12,0.00,CLR,SKC,0.00,WeatherDisplay:10.37,2013-04-02 15:37:00,
2013-04-02 11:39:00,53.6,2.1,28.14,SW,225,8.1,8.1,12,0.00,CLR,SKC,0.00,WeatherDisplay:10.37,2013-04-02 15:39:00,
2013-04-02 11:40:00,53.6,2.1,28.14,SW,225,8.1,8.1,12,0.00,CLR,SKC,0.00,WeatherDisplay:10.37,2013-04-02 15:40:00,
2013-04-02 11:43:00,54.5,2.8,28.14,NW,315,5.8,0.0,12,0.00,CLR,SKC,0.00,WeatherDisplay:10.37,2013-04-02 15:43:00,
2013-04-02 11:45:00,54.7,3.0,28.14,SW,225,6.0,6.0,12,0.00,CLR,SKC,0.00,WeatherDisplay:10.37,2013-04-02 15:45:00,
2013-04-02 11:48:00,54.3,2.7,28.14,SW,225,5.8,5.8,12,0.00,CLR,SKC,0.00,WeatherDisplay:10.37,2013-04-02 15:48:00,
2013-04-02 11:51:00,53.1,1.7,28.14,WSW,248,5.8,5.8,12,0.00,CLR,SKC,0.00,WeatherDisplay:10.37,2013-04-02 15:51:00,
2013-04-02 11:52:00,52.5,1.3,28.14,SW,225,5.8,5.8,12,0.00,CLR,SKC,0.00,WeatherDisplay:10.37,2013-04-02 15:52:00,
2013-04-02 11:53:00,52.2,1.0,28.14,West,270,8.3,8.3,12,0.00,CLR,SKC,0.00,WeatherDisplay:10.37,2013-04-02 15:53:00,
2013-04-02 11:56:00,51.4,0.4,28.14,West,270,6.9,6.9,12,0.00,CLR,SKC,0.00,WeatherDisplay:10.37,2013-04-02 15:56:00,
2013-04-02 11:58:00,51.4,0.4,28.14,NW,315,3.5,3.5,12,0.00,CLR,SKC,0.00,WeatherDisplay:10.37,2013-04-02 15:58:00,
2013-04-02 12:02:00,51.6,0.6,28.14,SE,135,3.5,3.5,12,0.00,CLR,SKC,0.00,WeatherDisplay:10.37,2013-04-02 16:02:00,
2013-04-02 12:03:00,51.6,0.6,28.14,SE,135,3.5,3.5,12,0.00,CLR,SKC,0.00,WeatherDisplay:10.37,2013-04-02 16:03:00,
2013-04-02 12:07:00,53.2,1.8,28.14,WNW,292,3.5,4.5,12,0.00,CLR,SKC,0.00,WeatherDisplay:10.37,2013-04-02 16:07:00,
2013-04-02 12:08:00,53.6,2.1,28.14,NNW,338,8.1,8.1,12,0.00,CLR,SKC,0.00,WeatherDisplay:10.37,2013-04-02 16:08:00,
2013-04-02 12:12:00,53.8,2.3,28.14,West,270,5.8,5.8,12,0.00,CLR,SKC,0.00,WeatherDisplay:10.37,2013-04-02 16:12:00,
2013-04-02 12:13:00,54.0,2.4,28.15,West,270,6.9,6.9,12,0.00,CLR,SKC,0.00,WeatherDisplay:10.37,2013-04-02 16:13:00,
2013-04-02 12:18:00,53.2,1.8,28.14,SW,225,11.5,11.5,12,0.00,CLR,SKC,0.00,WeatherDisplay:10.37,2013-04-02 16:18:00,
2013-04-02 12:20:00,53.6,2.1,28.14,West,270,8.1,8.1,12,0.00,CLR,SKC,0.00,WeatherDisplay:10.37,2013-04-02 16:20:00,
2013-04-02 12:24:00,54.1,2.5,28.15,SW,225,8.1,8.1,12,0.00,CLR,SKC,0.00,WeatherDisplay:10.37,2013-04-02 16:24:00,
2013-04-02 12:25:00,54.5,2.8,28.15,SW,225,8.1,8.1,12,0.00,CLR,SKC,0.00,WeatherDisplay:10.37,2013-04-02 16:25:00,
2013-04-02 12:29:00,55.2,3.4,28.15,SW,225,5.8,5.8,12,0.00,CLR,SKC,0.00,WeatherDisplay:10.37,2013-04-02 16:29:00,
2013-04-02 12:30:00,55.4,3.5,28.15,South,180,5.8,5.8,12,0.00,CLR,SKC,0.00,WeatherDisplay:10.37,2013-04-02 16:30:00,
2013-04-02 12:34:00,55.0,3.3,28.14,SW,225,7.6,7.6,12,0.00,CLR,SKC,0.00,WeatherDisplay:10.37,2013-04-02 16:34:00,
2013-04-02 12:36:00,54.9,3.1,28.14,South,180,8.1,8.1,12,0.00,CLR,SKC,0.00,WeatherDisplay:10.37,2013-04-02 16:36:00,
2013-04-02 12:39:00,54.9,3.1,28.14,West,270,6.9,6.9,12,0.00,CLR,SKC,0.00,WeatherDisplay:10.37,2013-04-02 16:39:00,
2013-04-02 12:42:00,54.5,2.8,28.14,SW,225,6.9,6.9,12,0.00,CLR,SKC,0.00,WeatherDisplay:10.37,2013-04-02 16:42:00,
2013-04-02 12:44:00,54.7,3.0,28.13,West,270,8.1,8.1,12,0.00,CLR,SKC,0.00,WeatherDisplay:10.37,2013-04-02 16:44:00,
2013-04-02 12:47:00,54.9,3.1,28.13,SW,225,9.2,9.2,12,0.00,CLR,SKC,0.00,WeatherDisplay:10.37,2013-04-02 16:47:00,
2013-04-02 12:49:00,54.7,3.0,28.14,SE,135,5.8,0.0,12,0.00,CLR,SKC,0.00,WeatherDisplay:10.37,2013-04-02 16:49:00,
2013-04-02 12:52:00,55.0,3.3,28.13,SSW,202,0.0,0.0,12,0.00,CLR,SKC,0.00,WeatherDisplay:10.37,2013-04-02 16:52:00,
2013-04-02 12:54:00,54.5,2.8,28.13,SW,225,0.0,0.0,12,0.00,CLR,SKC,0.00,WeatherDisplay:10.37,2013-04-02 16:54:00,
2013-04-02 12:57:00,54.3,2.7,28.13,NW,315,0.0,0.0,12,0.00,CLR,SKC,0.00,WeatherDisplay:10.37,2013-04-02 16:57:00,
2013-04-02 12:59:00,54.9,3.1,28.13,SW,225,0.0,0.0,12,0.00,CLR,SKC,0.00,WeatherDisplay:10.37,2013-04-02 16:59:00,
2013-04-02 13:00:00,54.7,3.0,28.13,SW,229,0.0,9.0,12,0.00,CLR,SKC,0.00,WeatherDisplay:10.37,2013-04-02 17:00:00,
2013-04-02 13:03:00,54.9,3.1,28.13,SW,225,0.0,0.0,12,0.00,CLR,SKC,0.00,WeatherDisplay:10.37,2013-04-02 17:03:00,
2013-04-02 13:04:00,54.9,3.1,28.13,SW,225,0.0,0.0,12,0.00,CLR,SKC,0.00,WeatherDisplay:10.37,2013-04-02 17:04:00,
2013-04-02 13:05:00,54.9,3.1,28.13,SW,225,0.0,0.0,12,0.00,CLR,SKC,0.00,WeatherDisplay:10.37,2013-04-02 17:05:00,
2013-04-02 13:09:00,56.3,4.2,28.13,WSW,248,0.0,0.0,12,0.00,CLR,SKC,0.00,WeatherDisplay:10.37,2013-04-02 17:09:00,
2013-04-02 13:10:00,56.3,4.2,28.13,WSW,248,0.0,0.0,12,0.00,CLR,SKC,0.00,WeatherDisplay:10.37,2013-04-02 17:10:00,
2013-04-02 13:14:00,56.3,4.2,28.13,SE,135,0.0,0.0,12,0.00,CLR,SKC,0.00,WeatherDisplay:10.37,2013-04-02 17:14:00,
2013-04-02 13:15:00,56.3,4.2,28.13,West,270,0.0,0.0,12,0.00,CLR,SKC,0.00,WeatherDisplay:10.37,2013-04-02 17:15:00,
2013-04-02 13:19:00,56.3,4.2,28.13,South,180,0.0,0.0,12,0.00,CLR,SKC,0.00,WeatherDisplay:10.37,2013-04-02 17:19:00,
2013-04-02 13:20:00,56.3,4.2,28.13,South,180,0.0,0.0,12,0.00,CLR,SKC,0.00,WeatherDisplay:10.37,2013-04-02 17:20:00,
2013-04-02 13:24:00,56.7,4.5,28.13,South,180,0.0,0.0,12,0.00,CLR,SKC,0.00,WeatherDisplay:10.37,2013-04-02 17:24:00,
2013-04-02 13:25:00,56.7,4.5,28.13,SW,225,0.0,0.0,12,0.00,CLR,SKC,0.00,WeatherDisplay:10.37,2013-04-02 17:25:00,
2013-04-02 13:29:00,56.5,4.4,28.13,SE,135,0.0,0.0,12,0.00,CLR,SKC,0.00,WeatherDisplay:10.37,2013-04-02 17:29:00,
2013-04-02 13:30:00,56.5,4.4,28.13,SE,135,0.0,0.0,12,0.00,CLR,SKC,0.00,WeatherDisplay:10.37,2013-04-02 17:30:00,
2013-04-02 13:34:00,56.1,4.1,28.13,SSW,202,0.0,0.0,12,0.00,CLR,SKC,0.00,WeatherDisplay:10.37,2013-04-02 17:34:00,
2013-04-02 13:35:00,56.5,4.4,28.12,SSW,202,0.0,0.0,12,0.00,CLR,SKC,0.00,WeatherDisplay:10.37,2013-04-02 17:35:00,
2013-04-02 13:36:00,56.7,4.5,28.13,South,180,0.0,0.0,12,0.00,CLR,SKC,0.00,WeatherDisplay:10.37,2013-04-02 17:36:00,
2013-04-02 13:39:00,57.2,5.0,28.12,South,180,0.0,0.0,12,0.00,CLR,SKC,0.00,WeatherDisplay:10.37,2013-04-02 17:39:00,
2013-04-02 13:40:00,57.2,5.0,28.12,South,180,0.0,0.0,12,0.00,CLR,SKC,0.00,WeatherDisplay:10.37,2013-04-02 17:40:00,
2013-04-02 13:41:00,57.4,5.1,28.12,South,180,0.0,0.0,12,0.00,CLR,SKC,0.00,WeatherDisplay:10.37,2013-04-02 17:41:00,
2013-04-02 13:44:00,57.0,4.8,28.12,South,180,0.0,0.0,12,0.00,CLR,SKC,0.00,WeatherDisplay:10.37,2013-04-02 17:44:00,
2013-04-02 13:47:00,57.4,5.1,28.12,South,180,0.0,0.0,12,0.00,CLR,SKC,0.00,WeatherDisplay:10.37,2013-04-02 17:47:00,
2013-04-02 13:50:00,57.2,5.0,28.11,SW,225,0.0,0.0,12,0.00,CLR,SKC,0.00,WeatherDisplay:10.37,2013-04-02 17:50:00,
2013-04-02 13:52:00,57.2,5.0,28.12,SSW,202,0.0,0.0,12,0.00,CLR,SKC,0.00,WeatherDisplay:10.37,2013-04-02 17:52:00,
2013-04-02 13:55:00,57.4,5.1,28.12,South,180,0.0,0.0,12,0.00,CLR,SKC,0.00,WeatherDisplay:10.37,2013-04-02 17:55:00,
2013-04-02 13:57:00,57.7,5.4,28.12,SSW,202,0.0,0.0,12,0.00,CLR,SKC,0.00,WeatherDisplay:10.37,2013-04-02 17:57:00,
2013-04-02 14:00:00,58.1,5.7,28.11,South,180,0.0,0.0,12,0.00,CLR,SKC,0.00,WeatherDisplay:10.37,2013-04-02 18:00:00,
2013-04-02 14:02:00,58.1,5.7,28.10,South,180,0.0,0.0,12,0.00,CLR,SKC,0.00,WeatherDisplay:10.37,2013-04-02 18:02:00,
2013-04-02 14:03:00,58.1,5.7,28.10,South,180,0.0,0.0,12,0.00,CLR,SKC,0.00,WeatherDisplay:10.37,2013-04-02 18:03:00,
2013-04-02 14:06:00,58.1,5.7,28.11,South,180,0.0,0.0,12,0.00,CLR,SKC,0.00,WeatherDisplay:10.37,2013-04-02 18:06:00,
2013-04-02 14:08:00,59.5,6.8,28.11,SW,225,3.5,3.5,12,0.00,CLR,SKC,0.00,WeatherDisplay:10.37,2013-04-02 18:08:00,
2013-04-02 14:11:00,59.7,6.9,28.11,South,180,0.0,0.0,12,0.00,CLR,SKC,0.00,WeatherDisplay:10.37,2013-04-02 18:11:00,
2013-04-02 14:13:00,59.4,6.6,28.11,SW,225,0.0,0.0,12,0.00,CLR,SKC,0.00,WeatherDisplay:10.37,2013-04-02 18:13:00,
2013-04-02 14:17:00,59.4,6.6,28.11,South,180,0.0,0.0,12,0.00,CLR,SKC,0.00,WeatherDisplay:10.37,2013-04-02 18:17:00,
2013-04-02 14:18:00,59.4,6.6,28.10,West,270,0.0,0.0,12,0.00,CLR,SKC,0.00,WeatherDisplay:10.37,2013-04-02 18:18:00,
2013-04-02 14:23:00,58.8,6.2,28.10,SW,225,0.0,0.0,12,0.00,CLR,SKC,0.00,WeatherDisplay:10.37,2013-04-02 18:23:00,
2013-04-02 14:24:00,58.5,5.9,28.10,SW,225,0.0,0.0,12,0.00,CLR,SKC,0.00,WeatherDisplay:10.37,2013-04-02 18:24:00,
2013-04-02 14:28:00,58.8,6.2,28.10,West,270,0.0,0.0,12,0.00,CLR,SKC,0.00,WeatherDisplay:10.37,2013-04-02 18:28:00,
2013-04-02 14:29:00,58.8,6.2,28.10,West,270,0.0,0.0,12,0.00,CLR,SKC,0.00,WeatherDisplay:10.37,2013-04-02 18:29:00,
2013-04-02 14:33:00,59.0,6.4,28.10,South,180,0.0,0.0,12,0.00,CLR,SKC,0.00,WeatherDisplay:10.37,2013-04-02 18:33:00,
2013-04-02 14:34:00,58.8,6.2,28.10,SSW,202,0.0,0.0,12,0.00,CLR,SKC,0.00,WeatherDisplay:10.37,2013-04-02 18:34:00,
2013-04-02 14:38:00,58.1,5.7,28.10,SW,225,0.0,0.0,12,0.00,CLR,SKC,0.00,WeatherDisplay:10.37,2013-04-02 18:38:00,
2013-04-02 14:39:00,58.3,5.8,28.10,SSE,158,0.0,0.0,12,0.00,CLR,SKC,0.00,WeatherDisplay:10.37,2013-04-02 18:39:00,
2013-04-02 14:40:00,58.3,5.8,28.09,WNW,292,0.0,0.0,12,0.00,CLR,SKC,0.00,WeatherDisplay:10.37,2013-04-02 18:40:00,
2013-04-02 14:43:00,58.1,5.7,28.10,SSW,202,0.0,0.0,12,0.00,CLR,SKC,0.00,WeatherDisplay:10.37,2013-04-02 18:43:00,
2013-04-02 14:44:00,58.1,5.7,28.10,SSW,202,0.0,0.0,12,0.00,CLR,SKC,0.00,WeatherDisplay:10.37,2013-04-02 18:44:00,
2013-04-02 14:45:00,58.1,5.7,28.09,SSW,194,0.0,0.0,12,0.00,CLR,SKC,0.00,WeatherDisplay:10.37,2013-04-02 18:45:00,
2013-04-02 14:48:00,58.3,5.8,28.09,South,180,0.0,0.0,12,0.00,CLR,SKC,0.00,WeatherDisplay:10.37,2013-04-02 18:48:00,
2013-04-02 14:49:00,58.3,5.8,28.09,South,180,0.0,0.0,12,0.00,CLR,SKC,0.00,WeatherDisplay:10.37,2013-04-02 18:49:00,
2013-04-02 14:50:00,58.3,5.8,28.09,SSW,202,0.0,0.0,12,0.00,CLR,SKC,0.00,WeatherDisplay:10.37,2013-04-02 18:50:00,
2013-04-02 14:54:00,57.7,5.4,28.09,West,270,0.0,0.0,12,0.00,CLR,SKC,0.00,WeatherDisplay:10.37,2013-04-02 18:54:00,
2013-04-02 14:56:00,57.6,5.2,28.09,West,270,0.0,0.0,12,0.00,CLR,SKC,0.00,WeatherDisplay:10.37,2013-04-02 18:56:00,
2013-04-02 14:59:00,57.4,5.1,28.09,SW,225,0.0,0.0,12,0.00,CLR,SKC,0.00,WeatherDisplay:10.37,2013-04-02 18:59:00,
2013-04-02 15:01:00,57.2,5.0,28.09,South,180,0.0,0.0,12,0.00,CLR,SKC,0.00,WeatherDisplay:10.37,2013-04-02 19:01:00,
2013-04-02 15:04:00,57.2,5.0,28.09,South,180,0.0,0.0,12,0.00,CLR,SKC,0.00,WeatherDisplay:10.37,2013-04-02 19:04:00,
2013-04-02 15:05:00,57.2,5.0,28.09,South,180,0.0,0.0,12,0.00,CLR,SKC,0.00,WeatherDisplay:10.37,2013-04-02 19:05:00,
2013-04-02 15:07:00,57.2,5.0,28.09,South,180,0.0,0.0,12,0.00,CLR,SKC,0.00,WeatherDisplay:10.37,2013-04-02 19:07:00,
2013-04-02 15:09:00,57.6,5.2,28.09,SW,225,0.0,0.0,12,0.00,CLR,SKC,0.00,WeatherDisplay:10.37,2013-04-02 19:09:00,
2013-04-02 15:11:00,57.4,5.1,28.08,South,180,0.0,0.0,12,0.00,CLR,SKC,0.00,WeatherDisplay:10.37,2013-04-02 19:11:00,
2013-04-02 15:13:00,57.4,5.1,28.09,South,180,0.0,0.0,12,0.00,CLR,SKC,0.00,WeatherDisplay:10.37,2013-04-02 19:13:00,
2013-04-02 15:14:00,57.7,5.3,28.09,South,180,0.0,0.0,12,0.00,CLR,SKC,0.00,WeatherDisplay:10.37,2013-04-02 19:14:00,
2013-04-02 15:17:00,57.9,5.5,28.09,South,180,0.0,0.0,12,0.00,CLR,SKC,0.00,WeatherDisplay:10.37,2013-04-02 19:17:00,
2013-04-02 15:18:00,57.9,5.5,28.09,South,180,0.0,0.0,12,0.00,CLR,SKC,0.00,WeatherDisplay:10.37,2013-04-02 19:18:00,
2013-04-02 15:20:00,58.1,5.7,28.08,SW,225,0.0,0.0,12,0.00,CLR,SKC,0.00,WeatherDisplay:10.37,2013-04-02 19:20:00,
2013-04-02 15:22:00,58.3,5.8,28.08,SW,225,0.0,0.0,12,0.00,CLR,SKC,0.00,WeatherDisplay:10.37,2013-04-02 19:22:00,
2013-04-02 15:23:00,58.5,5.9,28.08,South,180,0.0,0.0,12,0.00,CLR,SKC,0.00,WeatherDisplay:10.37,2013-04-02 19:23:00,
2013-04-02 15:25:00,58.3,5.8,28.08,South,180,0.0,0.0,12,0.00,CLR,SKC,0.00,WeatherDisplay:10.37,2013-04-02 19:25:00,
2013-04-02 15:28:00,58.1,5.7,28.08,SW,225,0.0,0.0,12,0.00,CLR,SKC,0.00,WeatherDisplay:10.37,2013-04-02 19:28:00,
2013-04-02 15:31:00,58.1,5.7,28.07,SE,135,0.0,0.0,12,0.00,CLR,SKC,0.00,WeatherDisplay:10.37,2013-04-02 19:31:00,
2013-04-02 15:33:00,58.1,5.7,28.08,South,180,0.0,0.0,12,0.00,CLR,SKC,0.00,WeatherDisplay:10.37,2013-04-02 19:33:00,
2013-04-02 15:34:00,58.1,5.7,28.07,South,180,0.0,0.0,12,0.00,CLR,SKC,0.00,WeatherDisplay:10.37,2013-04-02 19:34:00,
2013-04-02 15:37:00,58.1,5.7,28.08,South,180,0.0,0.0,12,0.00,CLR,SKC,0.00,WeatherDisplay:10.37,2013-04-02 19:37:00,
2013-04-02 15:38:00,57.9,5.5,28.07,South,180,0.0,0.0,12,0.00,CLR,SKC,0.00,WeatherDisplay:10.37,2013-04-02 19:38:00,
2013-04-02 15:39:00,58.1,5.7,28.08,South,180,0.0,0.0,12,0.00,CLR,SKC,0.00,WeatherDisplay:10.37,2013-04-02 19:39:00,
2013-04-02 15:42:00,57.4,5.1,28.08,South,180,0.0,0.0,12,0.00,CLR,SKC,0.00,WeatherDisplay:10.37,2013-04-02 19:42:00,
2013-04-02 15:44:00,57.2,5.0,28.07,SW,225,0.0,0.0,12,0.00,CLR,SKC,0.00,WeatherDisplay:10.37,2013-04-02 19:44:00,
2013-04-02 15:48:00,57.2,5.0,28.07,South,180,0.0,0.0,12,0.00,CLR,SKC,0.00,WeatherDisplay:10.37,2013-04-02 19:48:00,
2013-04-02 15:49:00,57.0,4.8,28.08,SW,225,0.0,0.0,12,0.00,CLR,SKC,0.00,WeatherDisplay:10.37,2013-04-02 19:49:00,
2013-04-02 15:50:00,57.0,4.8,28.08,SW,225,0.0,0.0,12,0.00,CLR,SKC,0.00,WeatherDisplay:10.37,2013-04-02 19:50:00,
2013-04-02 15:53:00,57.2,5.0,28.07,SW,225,0.0,0.0,12,0.00,CLR,SKC,0.00,WeatherDisplay:10.37,2013-04-02 19:53:00,
2013-04-02 15:55:00,57.2,5.0,28.08,SW,225,0.0,0.0,12,0.00,CLR,SKC,0.00,WeatherDisplay:10.37,2013-04-02 19:55:00,
2013-04-02 15:58:00,57.4,5.1,28.07,South,180,0.0,0.0,12,0.00,CLR,SKC,0.00,WeatherDisplay:10.37,2013-04-02 19:58:00,
2013-04-02 16:00:00,57.2,5.0,28.08,South,180,0.0,0.0,12,0.00,CLR,SKC,0.00,WeatherDisplay:10.37,2013-04-02 20:00:00,
2013-04-02 16:03:00,57.0,4.8,28.07,South,180,0.0,0.0,12,0.00,CLR,SKC,0.00,WeatherDisplay:10.37,2013-04-02 20:03:00,
2013-04-02 16:05:00,57.0,4.8,28.07,South,180,0.0,0.0,12,0.00,CLR,SKC,0.00,WeatherDisplay:10.37,2013-04-02 20:05:00,
2013-04-02 16:09:00,57.0,4.8,28.07,South,180,0.0,0.0,12,0.00,CLR,SKC,0.00,WeatherDisplay:10.37,2013-04-02 20:09:00,
2013-04-02 16:10:00,56.8,4.7,28.07,SE,135,0.0,0.0,12,0.00,CLR,SKC,0.00,WeatherDisplay:10.37,2013-04-02 20:10:00,
2013-04-02 16:12:00,57.0,4.8,28.07,South,180,0.0,0.0,12,0.00,CLR,SKC,0.00,WeatherDisplay:10.37,2013-04-02 20:12:00,
2013-04-02 16:14:00,57.2,5.0,28.07,SSW,202,0.0,0.0,12,0.00,CLR,SKC,0.00,WeatherDisplay:10.37,2013-04-02 20:14:00,
2013-04-02 16:16:00,57.4,5.1,28.07,South,180,0.0,0.0,12,0.00,CLR,SKC,0.00,WeatherDisplay:10.37,2013-04-02 20:16:00,
2013-04-02 16:17:00,57.4,5.1,28.08,SW,225,0.0,0.0,12,0.00,CLR,SKC,0.00,WeatherDisplay:10.37,2013-04-02 20:17:00,
2013-04-02 16:19:00,57.4,5.1,28.07,SE,135,0.0,0.0,12,0.00,CLR,SKC,0.00,WeatherDisplay:10.37,2013-04-02 20:19:00,
2013-04-02 16:21:00,57.4,5.1,28.07,West,270,0.0,0.0,12,0.00,CLR,SKC,0.00,WeatherDisplay:10.37,2013-04-02 20:21:00,
2013-04-02 16:22:00,57.4,5.1,28.08,SW,225,0.0,0.0,12,0.00,CLR,SKC,0.00,WeatherDisplay:10.37,2013-04-02 20:22:00,
2013-04-02 16:24:00,57.4,5.1,28.07,SW,225,0.0,0.0,12,0.00,CLR,SKC,0.00,WeatherDisplay:10.37,2013-04-02 20:24:00,
2013-04-02 16:26:00,57.2,5.0,28.07,South,180,0.0,0.0,12,0.00,CLR,SKC,0.00,WeatherDisplay:10.37,2013-04-02 20:26:00,
2013-04-02 16:28:00,57.2,5.0,28.07,South,180,0.0,0.0,12,0.00,CLR,SKC,0.00,WeatherDisplay:10.37,2013-04-02 20:28:00,
2013-04-02 16:29:00,57.0,4.8,28.07,South,180,0.0,0.0,12,0.00,CLR,SKC,0.00,WeatherDisplay:10.37,2013-04-02 20:29:00,
2013-04-02 16:32:00,56.5,4.4,28.07,West,270,0.0,0.0,12,0.00,CLR,SKC,0.00,WeatherDisplay:10.37,2013-04-02 20:32:00,
2013-04-02 16:33:00,56.5,4.4,28.08,West,270,0.0,0.0,12,0.00,CLR,SKC,0.00,WeatherDisplay:10.37,2013-04-02 20:33:00,
2013-04-02 16:34:00,56.3,4.2,28.07,South,180,0.0,0.0,12,0.00,CLR,SKC,0.00,WeatherDisplay:10.37,2013-04-02 20:34:00,
2013-04-02 16:37:00,56.1,4.1,28.08,SW,225,0.0,0.0,12,0.00,CLR,SKC,0.00,WeatherDisplay:10.37,2013-04-02 20:37:00,
2013-04-02 16:38:00,56.1,4.1,28.08,SW,225,0.0,0.0,12,0.00,CLR,SKC,0.00,WeatherDisplay:10.37,2013-04-02 20:38:00,
2013-04-02 16:40:00,56.1,4.1,28.08,SW,225,0.0,0.0,12,0.00,CLR,SKC,0.00,WeatherDisplay:10.37,2013-04-02 20:40:00,
2013-04-02 16:42:00,55.9,4.0,28.08,NW,315,0.0,0.0,12,0.00,CLR,SKC,0.00,WeatherDisplay:10.37,2013-04-02 20:42:00,
2013-04-02 16:44:00,55.8,3.8,28.08,SW,225,0.0,0.0,12,0.00,CLR,SKC,0.00,WeatherDisplay:10.37,2013-04-02 20:44:00,
2013-04-02 16:45:00,55.8,3.8,28.08,NW,315,0.0,0.0,12,0.00,CLR,SKC,0.00,WeatherDisplay:10.37,2013-04-02 20:45:00,
2013-04-02 16:48:00,55.6,3.7,28.08,West,270,0.0,0.0,12,0.00,CLR,SKC,0.00,WeatherDisplay:10.37,2013-04-02 20:48:00,
2013-04-02 16:49:00,55.6,3.7,28.08,West,270,0.0,0.0,12,0.00,CLR,SKC,0.00,WeatherDisplay:10.37,2013-04-02 20:49:00,
2013-04-02 16:50:00,55.6,3.7,28.08,SW,225,0.0,0.0,12,0.00,CLR,SKC,0.00,WeatherDisplay:10.37,2013-04-02 20:50:00,
2013-04-02 16:53:00,55.4,3.5,28.08,SW,225,0.0,0.0,12,0.00,CLR,SKC,0.00,WeatherDisplay:10.37,2013-04-02 20:53:00,
2013-04-02 16:54:00,55.2,3.4,28.08,SW,225,0.0,0.0,12,0.00,CLR,SKC,0.00,WeatherDisplay:10.37,2013-04-02 20:54:00,
2013-04-02 16:55:00,55.2,3.4,28.08,SW,225,0.0,0.0,12,0.00,CLR,SKC,0.00,WeatherDisplay:10.37,2013-04-02 20:55:00,
2013-04-02 16:58:00,55.2,3.4,28.08,WNW,292,0.0,0.0,12,0.00,CLR,SKC,0.00,WeatherDisplay:10.37,2013-04-02 20:58:00,
2013-04-02 16:59:00,55.2,3.4,28.08,West,270,0.0,0.0,12,0.00,CLR,SKC,0.00,WeatherDisplay:10.37,2013-04-02 20:59:00,
2013-04-02 17:00:00,55.2,3.4,28.08,West,270,0.0,0.0,12,0.00,CLR,SKC,0.00,WeatherDisplay:10.37,2013-04-02 21:00:00,
2013-04-02 17:03:00,55.2,3.4,28.08,West,270,0.0,0.0,12,0.00,CLR,SKC,0.00,WeatherDisplay:10.37,2013-04-02 21:03:00,
2013-04-02 17:06:00,55.2,3.4,28.08,West,270,0.0,0.0,12,0.00,CLR,SKC,0.00,WeatherDisplay:10.37,2013-04-02 21:06:00,
2013-04-02 17:07:00,55.0,3.3,28.08,NW,315,0.0,0.0,12,0.00,CLR,SKC,0.00,WeatherDisplay:10.37,2013-04-02 21:07:00,
2013-04-02 17:09:00,55.0,3.3,28.08,South,180,0.0,0.0,12,0.00,CLR,SKC,0.00,WeatherDisplay:10.37,2013-04-02 21:09:00,
2013-04-02 17:11:00,54.9,3.1,28.08,West,270,0.0,0.0,12,0.00,CLR,SKC,0.00,WeatherDisplay:10.37,2013-04-02 21:11:00,
2013-04-02 17:12:00,54.9,3.1,28.08,SW,225,0.0,0.0,12,0.00,CLR,SKC,0.00,WeatherDisplay:10.37,2013-04-02 21:12:00,
2013-04-02 17:14:00,54.7,3.0,28.08,South,180,0.0,0.0,12,0.00,CLR,SKC,0.00,WeatherDisplay:10.37,2013-04-02 21:14:00,
2013-04-02 17:16:00,54.7,3.0,28.08,NW,315,0.0,0.0,12,0.00,CLR,SKC,0.00,WeatherDisplay:10.37,2013-04-02 21:16:00,
2013-04-02 17:18:00,54.7,3.0,28.08,West,270,0.0,0.0,12,0.00,CLR,SKC,0.00,WeatherDisplay:10.37,2013-04-02 21:18:00,
2013-04-02 17:20:00,54.7,3.0,28.08,West,270,0.0,0.0,12,0.00,CLR,SKC,0.00,WeatherDisplay:10.37,2013-04-02 21:20:00,
2013-04-02 17:22:00,54.7,3.0,28.08,West,270,0.0,0.0,12,0.00,CLR,SKC,0.00,WeatherDisplay:10.37,2013-04-02 21:22:00,
2013-04-02 17:23:00,54.7,3.0,28.09,NW,315,0.0,0.0,12,0.00,CLR,SKC,0.00,WeatherDisplay:10.37,2013-04-02 21:23:00,
2013-04-02 17:25:00,54.9,3.1,28.08,NW,315,0.0,0.0,12,0.00,CLR,SKC,0.00,WeatherDisplay:10.37,2013-04-02 21:25:00,
2013-04-02 17:27:00,54.9,3.1,28.08,SW,225,0.0,0.0,12,0.00,CLR,SKC,0.00,WeatherDisplay:10.37,2013-04-02 21:27:00,
2013-04-02 17:29:00,54.7,3.0,28.09,SW,225,0.0,0.0,12,0.00,CLR,SKC,0.00,WeatherDisplay:10.37,2013-04-02 21:29:00,
2013-04-02 17:30:00,54.7,3.0,28.09,NW,315,0.0,0.0,12,0.00,CLR,SKC,0.00,WeatherDisplay:10.37,2013-04-02 21:30:00,
2013-04-02 17:32:00,54.7,3.0,28.09,West,270,0.0,0.0,12,0.00,CLR,SKC,0.00,WeatherDisplay:10.37,2013-04-02 21:32:00,
2013-04-02 17:34:00,54.7,3.0,28.08,SW,225,0.0,0.0,12,0.00,CLR,SKC,0.00,WeatherDisplay:10.37,2013-04-02 21:34:00,
2013-04-02 17:35:00,54.7,3.0,28.08,SSW,202,0.0,0.0,12,0.00,CLR,SKC,0.00,WeatherDisplay:10.37,2013-04-02 21:35:00,
2013-04-02 17:38:00,54.7,3.0,28.08,SW,225,0.0,0.0,12,0.00,CLR,SKC,0.00,WeatherDisplay:10.37,2013-04-02 21:38:00,
2013-04-02 17:39:00,54.7,3.0,28.09,West,270,0.0,0.0,12,0.00,CLR,SKC,0.00,WeatherDisplay:10.37,2013-04-02 21:39:00,
2013-04-02 17:40:00,54.7,3.0,28.09,West,270,0.0,0.0,12,0.00,CLR,SKC,0.00,WeatherDisplay:10.37,2013-04-02 21:40:00,
2013-04-02 17:43:00,54.5,2.8,28.09,SW,225,0.0,0.0,12,0.00,CLR,SKC,0.00,WeatherDisplay:10.37,2013-04-02 21:43:00,
2013-04-02 17:45:00,54.5,2.8,28.08,NW,315,0.0,0.0,12,0.00,CLR,SKC,0.00,WeatherDisplay:10.37,2013-04-02 21:45:00,
2013-04-02 17:47:00,54.5,2.8,28.08,West,270,0.0,0.0,12,0.00,CLR,SKC,0.00,WeatherDisplay:10.37,2013-04-02 21:47:00,
2013-04-02 17:48:00,54.5,2.8,28.08,West,270,0.0,0.0,12,0.00,CLR,SKC,0.00,WeatherDisplay:10.37,2013-04-02 21:48:00,
2013-04-02 17:51:00,54.3,2.7,28.08,West,270,0.0,0.0,12,0.00,CLR,SKC,0.00,WeatherDisplay:10.37,2013-04-02 21:51:00,
2013-04-02 17:52:00,54.3,2.7,28.08,NW,315,0.0,0.0,12,0.00,CLR,SKC,0.00,WeatherDisplay:10.37,2013-04-02 21:52:00,
2013-04-02 17:54:00,54.5,2.8,28.08,NE,45,0.0,0.0,12,0.00,CLR,SKC,0.00,WeatherDisplay:10.37,2013-04-02 21:54:00,
2013-04-02 17:56:00,54.7,3.0,28.07,West,270,0.0,0.0,12,0.00,CLR,SKC,0.00,WeatherDisplay:10.37,2013-04-02 21:56:00,
2013-04-02 17:58:00,54.9,3.1,28.08,West,270,0.0,0.0,12,0.00,CLR,SKC,0.00,WeatherDisplay:10.37,2013-04-02 21:58:00,
2013-04-02 18:00:00,55.0,3.3,28.08,SW,225,0.0,0.0,12,0.00,CLR,SKC,0.00,WeatherDisplay:10.37,2013-04-02 22:00:00,
2013-04-02 18:01:00,55.0,3.3,28.08,SW,225,0.0,0.0,12,0.00,CLR,SKC,0.00,WeatherDisplay:10.37,2013-04-02 22:01:00,
2013-04-02 18:03:00,55.0,3.3,28.08,SW,225,0.0,0.0,12,0.00,CLR,SKC,0.00,WeatherDisplay:10.37,2013-04-02 22:03:00,
2013-04-02 18:05:00,55.0,3.3,28.08,SW,225,0.0,0.0,12,0.00,CLR,SKC,0.00,WeatherDisplay:10.37,2013-04-02 22:05:00,
2013-04-02 18:07:00,55.0,3.3,28.08,SW,225,0.0,0.0,12,0.00,CLR,SKC,0.00,WeatherDisplay:10.37,2013-04-02 22:07:00,
2013-04-02 18:08:00,54.9,3.1,28.08,SW,225,0.0,0.0,12,0.00,CLR,SKC,0.00,WeatherDisplay:10.37,2013-04-02 22:08:00,
2013-04-02 18:10:00,54.7,3.0,28.07,West,270,0.0,0.0,12,0.00,CLR,SKC,0.00,WeatherDisplay:10.37,2013-04-02 22:10:00,
2013-04-02 18:12:00,54.7,3.0,28.08,SW,225,0.0,0.0,12,0.00,CLR,SKC,0.00,WeatherDisplay:10.37,2013-04-02 22:12:00,
2013-04-02 18:13:00,54.7,3.0,28.08,SW,225,0.0,0.0,12,0.00,CLR,SKC,0.00,WeatherDisplay:10.37,2013-04-02 22:13:00,
2013-04-02 18:15:00,54.7,3.0,28.08,South,180,0.0,0.0,12,0.00,CLR,SKC,0.00,WeatherDisplay:10.37,2013-04-02 22:15:00,
2013-04-02 18:17:00,54.5,2.8,28.08,North,0,0.0,0.0,12,0.00,CLR,SKC,0.00,WeatherDisplay:10.37,2013-04-02 22:17:00,
2013-04-02 18:18:00,54.5,2.8,28.08,South,180,0.0,0.0,12,0.00,CLR,SKC,0.00,WeatherDisplay:10.37,2013-04-02 22:18:00,
2013-04-02 18:20:00,54.5,2.8,28.08,SW,225,0.0,0.0,12,0.00,CLR,SKC,0.00,WeatherDisplay:10.37,2013-04-02 22:20:00,
2013-04-02 18:24:00,54.3,2.7,28.08,West,270,0.0,0.0,12,0.00,CLR,SKC,0.00,WeatherDisplay:10.37,2013-04-02 22:24:00,
2013-04-02 18:26:00,54.3,2.7,28.08,SW,225,0.0,0.0,12,0.00,CLR,SKC,0.00,WeatherDisplay:10.37,2013-04-02 22:26:00,
2013-04-02 18:29:00,54.1,2.5,28.08,South,180,0.0,0.0,12,0.00,CLR,SKC,0.00,WeatherDisplay:10.37,2013-04-02 22:29:00,
2013-04-02 18:32:00,54.0,2.4,28.09,West,270,0.0,0.0,12,0.00,CLR,SKC,0.00,WeatherDisplay:10.37,2013-04-02 22:32:00,
2013-04-02 18:34:00,53.8,2.3,28.09,South,180,0.0,0.0,12,0.00,CLR,SKC,0.00,WeatherDisplay:10.37,2013-04-02 22:34:00,
2013-04-02 18:38:00,53.8,2.3,28.09,NW,315,0.0,0.0,12,0.00,CLR,SKC,0.00,WeatherDisplay:10.37,2013-04-02 22:38:00,
2013-04-02 18:39:00,53.8,2.3,28.08,NE,45,0.0,0.0,12,0.00,CLR,SKC,0.00,WeatherDisplay:10.37,2013-04-02 22:39:00,
2013-04-02 18:43:00,53.6,2.1,28.09,North,0,0.0,0.0,12,0.00,CLR,SKC,0.00,WeatherDisplay:10.37,2013-04-02 22:43:00,
2013-04-02 18:44:00,53.6,2.1,28.09,West,270,0.0,0.0,12,0.00,CLR,SKC,0.00,WeatherDisplay:10.37,2013-04-02 22:44:00,
2013-04-02 18:45:00,53.6,2.1,28.09,NW,315,0.0,0.0,12,0.00,CLR,SKC,0.00,WeatherDisplay:10.37,2013-04-02 22:45:00,
2013-04-02 18:48:00,53.6,2.1,28.09,NW,315,0.0,0.0,12,0.00,CLR,SKC,0.00,WeatherDisplay:10.37,2013-04-02 22:48:00,
2013-04-02 18:49:00,53.6,2.1,28.09,SW,225,0.0,0.0,12,0.00,CLR,SKC,0.00,WeatherDisplay:10.37,2013-04-02 22:49:00,
2013-04-02 18:50:00,53.4,2.0,28.09,NW,315,0.0,0.0,12,0.00,CLR,SKC,0.00,WeatherDisplay:10.37,2013-04-02 22:50:00,
2013-04-02 18:54:00,53.4,2.0,28.09,NW,315,0.0,0.0,12,0.00,CLR,SKC,0.00,WeatherDisplay:10.37,2013-04-02 22:54:00,
2013-04-02 18:55:00,53.4,2.0,28.08,NE,45,0.0,0.0,12,0.00,CLR,SKC,0.00,WeatherDisplay:10.37,2013-04-02 22:55:00,
2013-04-02 18:59:00,52.9,1.5,28.09,West,270,0.0,0.0,12,0.00,CLR,SKC,0.00,WeatherDisplay:10.37,2013-04-02 22:59:00,
2013-04-02 19:01:00,52.9,1.5,28.09,West,270,0.0,0.0,12,0.00,CLR,SKC,0.00,WeatherDisplay:10.37,2013-04-02 23:01:00,
2013-04-02 19:04:00,52.9,1.5,28.08,West,270,0.0,0.0,12,0.00,CLR,SKC,0.00,WeatherDisplay:10.37,2013-04-02 23:04:00,
2013-04-02 19:05:00,52.9,1.5,28.08,West,270,0.0,0.0,12,0.00,CLR,SKC,0.00,WeatherDisplay:10.37,2013-04-02 23:05:00,
2013-04-02 19:08:00,52.9,1.5,28.09,West,270,0.0,0.0,12,0.00,CLR,SKC,0.00,WeatherDisplay:10.37,2013-04-02 23:08:00,
2013-04-02 19:10:00,52.7,1.4,28.09,NW,315,0.0,0.0,12,0.00,CLR,SKC,0.00,WeatherDisplay:10.37,2013-04-02 23:10:00,
2013-04-02 19:13:00,52.7,1.4,28.09,SW,225,0.0,0.0,12,0.00,CLR,SKC,0.00,WeatherDisplay:10.37,2013-04-02 23:13:00,
2013-04-02 19:15:00,53.1,1.7,28.08,SW,225,0.0,0.0,12,0.00,CLR,SKC,0.00,WeatherDisplay:10.37,2013-04-02 23:15:00,
2013-04-02 19:18:00,54.3,2.7,28.09,West,270,0.0,0.0,12,0.00,CLR,SKC,0.00,WeatherDisplay:10.37,2013-04-02 23:18:00,
2013-04-02 19:20:00,52.7,1.4,28.10,West,270,0.0,0.0,12,0.00,CLR,SKC,0.00,WeatherDisplay:10.37,2013-04-02 23:20:00,
2013-04-02 19:21:00,52.7,1.4,28.10,West,270,0.0,0.0,12,0.00,CLR,SKC,0.00,WeatherDisplay:10.37,2013-04-02 23:21:00,
2013-04-02 19:23:00,52.5,1.3,28.10,West,270,0.0,0.0,12,0.00,CLR,SKC,0.00,WeatherDisplay:10.37,2013-04-02 23:23:00,
2013-04-02 19:26:00,52.5,1.3,28.10,SW,225,0.0,0.0,12,0.00,CLR,SKC,0.00,WeatherDisplay:10.37,2013-04-02 23:26:00,
2013-04-02 19:27:00,52.5,1.3,28.09,West,270,0.0,0.0,12,0.00,CLR,SKC,0.00,WeatherDisplay:10.37,2013-04-02 23:27:00,
2013-04-02 19:28:00,52.5,1.3,28.10,South,180,0.0,0.0,12,0.00,CLR,SKC,0.00,WeatherDisplay:10.37,2013-04-02 23:28:00,
2013-04-02 19:33:00,52.3,1.1,28.10,NW,315,0.0,0.0,12,0.00,CLR,SKC,0.00,WeatherDisplay:10.37,2013-04-02 23:33:00,
2013-04-02 19:37:00,52.3,1.1,28.10,SW,225,0.0,0.0,12,0.00,CLR,SKC,0.00,WeatherDisplay:10.37,2013-04-02 23:37:00,
2013-04-02 19:38:00,52.3,1.1,28.10,SW,225,0.0,0.0,12,0.00,CLR,SKC,0.00,WeatherDisplay:10.37,2013-04-02 23:38:00,
2013-04-02 19:42:00,52.0,0.8,28.09,North,0,0.0,0.0,12,0.00,CLR,SKC,0.00,WeatherDisplay:10.37,2013-04-02 23:42:00,
2013-04-02 19:43:00,52.0,0.8,28.10,West,270,0.0,0.0,12,0.00,CLR,SKC,0.00,WeatherDisplay:10.37,2013-04-02 23:43:00,
2013-04-02 19:47:00,51.8,0.7,28.10,NW,315,0.0,0.0,12,0.00,CLR,SKC,0.00,WeatherDisplay:10.37,2013-04-02 23:47:00,
2013-04-02 19:48:00,51.8,0.7,28.10,West,270,0.0,0.0,12,0.00,CLR,SKC,0.00,WeatherDisplay:10.37,2013-04-02 23:48:00,
2013-04-02 19:49:00,51.8,0.7,28.10,West,270,0.0,0.0,12,0.00,CLR,SKC,0.00,WeatherDisplay:10.37,2013-04-02 23:49:00,
2013-04-02 19:52:00,51.8,0.7,28.10,NW,315,0.0,0.0,12,0.00,CLR,SKC,0.00,WeatherDisplay:10.37,2013-04-02 23:52:00,
2013-04-02 19:54:00,51.6,0.6,28.10,NW,315,0.0,0.0,12,0.00,CLR,SKC,0.00,WeatherDisplay:10.37,2013-04-02 23:54:00,
2013-04-02 19:58:00,51.6,0.6,28.10,SE,135,0.0,0.0,12,0.00,CLR,SKC,0.00,WeatherDisplay:10.37,2013-04-02 23:58:00,
2013-04-02 19:59:00,51.6,0.6,28.10,West,270,0.0,0.0,12,0.00,CLR,SKC,0.00,WeatherDisplay:10.37,2013-04-02 23:59:00,
2013-04-02 20:03:00,51.4,0.4,28.10,NW,315,0.0,0.0,12,0.00,CLR,SKC,0.00,WeatherDisplay:10.37,2013-04-03 00:03:00,
2013-04-02 20:04:00,51.4,0.4,28.10,NW,315,0.0,0.0,12,0.00,CLR,SKC,0.00,WeatherDisplay:10.37,2013-04-03 00:04:00,
2013-04-02 20:08:00,51.3,0.3,28.11,SW,225,0.0,0.0,12,0.00,CLR,SKC,0.00,WeatherDisplay:10.37,2013-04-03 00:08:00,
2013-04-02 20:09:00,51.3,0.3,28.10,West,270,0.0,0.0,12,0.00,CLR,SKC,0.00,WeatherDisplay:10.37,2013-04-03 00:09:00,
2013-04-02 20:10:00,51.1,0.1,28.10,SW,225,0.0,0.0,12,0.00,CLR,SKC,0.00,WeatherDisplay:10.37,2013-04-03 00:10:00,
2013-04-02 20:13:00,51.1,0.1,28.10,SW,225,0.0,0.0,12,0.00,CLR,SKC,0.00,WeatherDisplay:10.37,2013-04-03 00:13:00,
2013-04-02 20:14:00,51.1,0.1,28.10,South,180,0.0,0.0,12,0.00,CLR,SKC,0.00,WeatherDisplay:10.37,2013-04-03 00:14:00,
2013-04-02 20:15:00,51.1,0.1,28.09,South,180,0.0,0.0,12,0.00,CLR,SKC,0.00,WeatherDisplay:10.37,2013-04-03 00:15:00,
2013-04-02 20:18:00,50.9,0.0,28.10,SW,225,0.0,0.0,12,0.00,CLR,SKC,0.00,WeatherDisplay:10.37,2013-04-03 00:18:00,
2013-04-02 20:19:00,50.7,-0.2,28.10,West,270,0.0,0.0,12,0.00,CLR,SKC,0.00,WeatherDisplay:10.37,2013-04-03 00:19:00,
2013-04-02 20:20:00,50.7,-0.2,28.10,SW,225,0.0,0.0,12,0.00,CLR,SKC,0.00,WeatherDisplay:10.37,2013-04-03 00:20:00,
2013-04-02 20:24:00,50.5,-0.3,28.10,SW,225,0.0,0.0,12,0.00,CLR,SKC,0.00,WeatherDisplay:10.37,2013-04-03 00:24:00,
2013-04-02 20:26:00,50.5,-0.3,28.11,South,180,0.0,0.0,12,0.00,CLR,SKC,0.00,WeatherDisplay:10.37,2013-04-03 00:26:00,
2013-04-02 20:29:00,50.5,-0.3,28.11,South,180,0.0,0.0,12,0.00,CLR,SKC,0.00,WeatherDisplay:10.37,2013-04-03 00:29:00,
2013-04-02 20:30:00,50.5,-0.3,28.11,South,180,0.0,0.0,12,0.00,CLR,SKC,0.00,WeatherDisplay:10.37,2013-04-03 00:30:00,
2013-04-02 20:31:00,50.5,-0.3,28.11,West,270,0.0,0.0,12,0.00,CLR,SKC,0.00,WeatherDisplay:10.37,2013-04-03 00:31:00,
2013-04-02 20:34:00,50.4,-0.4,28.11,SW,225,0.0,0.0,12,0.00,CLR,SKC,0.00,WeatherDisplay:10.37,2013-04-03 00:34:00,
2013-04-02 20:35:00,50.4,-0.4,28.11,NW,315,0.0,0.0,12,0.00,CLR,SKC,0.00,WeatherDisplay:10.37,2013-04-03 00:35:00,
2013-04-02 20:36:00,50.4,-0.4,28.11,SE,135,0.0,0.0,12,0.00,CLR,SKC,0.00,WeatherDisplay:10.37,2013-04-03 00:36:00,
2013-04-02 20:40:00,50.4,-0.4,28.11,SW,225,0.0,0.0,12,0.00,CLR,SKC,0.00,WeatherDisplay:10.37,2013-04-03 00:40:00,
2013-04-02 20:42:00,50.4,-0.4,28.11,South,180,0.0,0.0,12,0.00,CLR,SKC,0.00,WeatherDisplay:10.37,2013-04-03 00:42:00,
2013-04-02 20:45:00,50.4,-0.4,28.11,SW,225,0.0,0.0,12,0.00,CLR,SKC,0.00,WeatherDisplay:10.37,2013-04-03 00:45:00,
2013-04-02 20:46:00,50.4,-0.4,28.11,South,180,0.0,0.0,12,0.00,CLR,SKC,0.00,WeatherDisplay:10.37,2013-04-03 00:46:00,
2013-04-02 20:48:00,50.4,-0.4,28.11,SSE,158,0.0,0.0,12,0.00,CLR,SKC,0.00,WeatherDisplay:10.37,2013-04-03 00:48:00,
2013-04-02 20:50:00,50.4,-0.4,28.11,South,180,0.0,0.0,12,0.00,CLR,SKC,0.00,WeatherDisplay:10.37,2013-04-03 00:50:00,
2013-04-02 20:52:00,50.4,-0.4,28.11,South,180,0.0,0.0,12,0.00,CLR,SKC,0.00,WeatherDisplay:10.37,2013-04-03 00:52:00,
2013-04-02 20:54:00,50.4,-0.4,28.11,South,180,0.0,0.0,12,0.00,CLR,SKC,0.00,WeatherDisplay:10.37,2013-04-03 00:54:00,
2013-04-02 20:55:00,50.2,-0.6,28.11,West,270,0.0,0.0,12,0.00,CLR,SKC,0.00,WeatherDisplay:10.37,2013-04-03 00:55:00,
2013-04-02 20:57:00,50.2,-0.6,28.11,SE,135,0.0,0.0,12,0.00,CLR,SKC,0.00,WeatherDisplay:10.37,2013-04-03 00:57:00,
2013-04-02 20:59:00,50.2,-0.6,28.11,SE,135,0.0,0.0,12,0.00,CLR,SKC,0.00,WeatherDisplay:10.37,2013-04-03 00:59:00,
2013-04-02 21:00:00,50.2,-0.6,28.11,SE,135,0.0,0.0,12,0.00,CLR,SKC,0.00,WeatherDisplay:10.37,2013-04-03 01:00:00,
2013-04-02 21:03:00,50.2,-0.6,28.11,SE,135,0.0,0.0,12,0.00,CLR,SKC,0.00,WeatherDisplay:10.37,2013-04-03 01:03:00,
2013-04-02 21:04:00,50.2,-0.6,28.11,SE,135,0.0,0.0,12,0.00,CLR,SKC,0.00,WeatherDisplay:10.37,2013-04-03 01:04:00,
2013-04-02 21:05:00,50.2,-0.6,28.12,SE,135,0.0,0.0,12,0.00,CLR,SKC,0.00,WeatherDisplay:10.37,2013-04-03 01:05:00,
2013-04-02 21:08:00,50.0,-0.7,28.12,SE,135,0.0,0.0,12,0.00,CLR,SKC,0.00,WeatherDisplay:10.37,2013-04-03 01:08:00,
2013-04-02 21:09:00,49.8,-0.9,28.12,SE,135,0.0,0.0,12,0.00,CLR,SKC,0.00,WeatherDisplay:10.37,2013-04-03 01:09:00,
2013-04-02 21:10:00,49.8,-0.9,28.11,SE,135,0.0,0.0,12,0.00,CLR,SKC,0.00,WeatherDisplay:10.37,2013-04-03 01:10:00,
2013-04-02 21:13:00,49.8,-0.9,28.12,SE,135,0.0,0.0,12,0.00,CLR,SKC,0.00,WeatherDisplay:10.37,2013-04-03 01:13:00,
2013-04-02 21:14:00,49.8,-0.9,28.12,SE,135,0.0,0.0,12,0.00,CLR,SKC,0.00,WeatherDisplay:10.37,2013-04-03 01:14:00,
2013-04-02 21:17:00,49.6,-1.0,28.12,SE,135,0.0,0.0,12,0.00,CLR,SKC,0.00,WeatherDisplay:10.37,2013-04-03 01:17:00,
2013-04-02 21:18:00,49.6,-1.0,28.12,SE,135,0.0,0.0,12,0.00,CLR,SKC,0.00,WeatherDisplay:10.37,2013-04-03 01:18:00,
2013-04-02 21:20:00,49.6,-1.0,28.11,SE,135,0.0,0.0,12,0.00,CLR,SKC,0.00,WeatherDisplay:10.37,2013-04-03 01:20:00,
2013-04-02 21:22:00,49.6,-1.0,28.11,SE,135,0.0,0.0,12,0.00,CLR,SKC,0.00,WeatherDisplay:10.37,2013-04-03 01:22:00,
2013-04-02 21:24:00,49.5,-1.2,28.12,SE,135,0.0,0.0,12,0.00,CLR,SKC,0.00,WeatherDisplay:10.37,2013-04-03 01:24:00,
2013-04-02 21:25:00,49.5,-1.2,28.11,SE,135,0.0,0.0,12,0.00,CLR,SKC,0.00,WeatherDisplay:10.37,2013-04-03 01:25:00,
2013-04-02 21:28:00,49.5,-1.2,28.11,SE,135,0.0,0.0,12,0.00,CLR,SKC,0.00,WeatherDisplay:10.37,2013-04-03 01:28:00,
2013-04-02 21:29:00,49.5,-1.2,28.11,SE,135,0.0,0.0,12,0.00,CLR,SKC,0.00,WeatherDisplay:10.37,2013-04-03 01:29:00,
2013-04-02 21:31:00,49.5,-1.2,28.11,SE,135,0.0,0.0,12,0.00,CLR,SKC,0.00,WeatherDisplay:10.37,2013-04-03 01:31:00,
2013-04-02 21:33:00,49.3,-1.3,28.12,SE,135,0.0,0.0,12,0.00,CLR,SKC,0.00,WeatherDisplay:10.37,2013-04-03 01:33:00,
2013-04-02 21:35:00,49.3,-1.3,28.12,SE,135,0.0,0.0,12,0.00,CLR,SKC,0.00,WeatherDisplay:10.37,2013-04-03 01:35:00,
2013-04-02 21:36:00,49.3,-1.3,28.12,SE,135,0.0,0.0,12,0.00,CLR,SKC,0.00,WeatherDisplay:10.37,2013-04-03 01:36:00,
2013-04-02 21:38:00,49.3,-1.3,28.12,SE,135,0.0,0.0,12,0.00,CLR,SKC,0.00,WeatherDisplay:10.37,2013-04-03 01:38:00,
2013-04-02 21:40:00,49.3,-1.3,28.12,SE,135,0.0,0.0,12,0.00,CLR,SKC,0.00,WeatherDisplay:10.37,2013-04-03 01:40:00,
2013-04-02 21:41:00,49.3,-1.3,28.12,SE,135,0.0,0.0,12,0.00,CLR,SKC,0.00,WeatherDisplay:10.37,2013-04-03 01:41:00,
2013-04-02 21:43:00,49.3,-1.3,28.12,SE,135,0.0,0.0,12,0.00,CLR,SKC,0.00,WeatherDisplay:10.37,2013-04-03 01:43:00,
2013-04-02 21:45:00,49.3,-1.3,28.12,SE,135,0.0,0.0,12,0.00,CLR,SKC,0.00,WeatherDisplay:10.37,2013-04-03 01:45:00,
2013-04-02 21:46:00,49.3,-1.3,28.12,SE,135,0.0,0.0,12,0.00,CLR,SKC,0.00,WeatherDisplay:10.37,2013-04-03 01:46:00,
2013-04-02 21:48:00,49.3,-1.3,28.12,SE,135,0.0,0.0,12,0.00,CLR,SKC,0.00,WeatherDisplay:10.37,2013-04-03 01:48:00,
2013-04-02 21:50:00,49.5,-1.2,28.12,SE,135,0.0,0.0,12,0.00,CLR,SKC,0.00,WeatherDisplay:10.37,2013-04-03 01:50:00,
2013-04-02 21:52:00,49.3,-1.3,28.12,SE,135,0.0,0.0,12,0.00,CLR,SKC,0.00,WeatherDisplay:10.37,2013-04-03 01:52:00,
2013-04-02 21:53:00,49.3,-1.3,28.12,SE,135,0.0,0.0,12,0.00,CLR,SKC,0.00,WeatherDisplay:10.37,2013-04-03 01:53:00,
2013-04-02 21:55:00,49.3,-1.3,28.12,SE,135,0.0,0.0,12,0.00,CLR,SKC,0.00,WeatherDisplay:10.37,2013-04-03 01:55:00,
2013-04-02 21:57:00,49.3,-1.3,28.12,SE,135,0.0,0.0,12,0.00,CLR,SKC,0.00,WeatherDisplay:10.37,2013-04-03 01:57:00,
2013-04-02 21:58:00,49.3,-1.3,28.12,SE,135,0.0,0.0,12,0.00,CLR,SKC,0.00,WeatherDisplay:10.37,2013-04-03 01:58:00,
2013-04-02 22:00:00,49.3,-1.3,28.13,SE,135,0.0,0.0,12,0.00,CLR,SKC,0.00,WeatherDisplay:10.37,2013-04-03 02:00:00,
2013-04-02 22:02:00,49.3,-1.3,28.12,SE,135,0.0,0.0,12,0.00,CLR,SKC,0.00,WeatherDisplay:10.37,2013-04-03 02:02:00,
2013-04-02 22:03:00,49.3,-1.3,28.12,SE,135,0.0,0.0,12,0.00,CLR,SKC,0.00,WeatherDisplay:10.37,2013-04-03 02:03:00,
2013-04-02 22:06:00,49.3,-1.3,28.13,SE,135,0.0,0.0,12,0.00,CLR,SKC,0.00,WeatherDisplay:10.37,2013-04-03 02:06:00,
2013-04-02 22:07:00,49.1,-1.4,28.13,SE,135,0.0,0.0,12,0.00,CLR,SKC,0.00,WeatherDisplay:10.37,2013-04-03 02:07:00,
2013-04-02 22:09:00,49.1,-1.4,28.13,SE,135,0.0,0.0,12,0.00,CLR,SKC,0.00,WeatherDisplay:10.37,2013-04-03 02:09:00,
2013-04-02 22:11:00,49.1,-1.4,28.12,SE,135,0.0,0.0,12,0.00,CLR,SKC,0.00,WeatherDisplay:10.37,2013-04-03 02:11:00,
2013-04-02 22:12:00,48.9,-1.6,28.12,SE,135,0.0,0.0,12,0.00,CLR,SKC,0.00,WeatherDisplay:10.37,2013-04-03 02:12:00,
2013-04-02 22:14:00,48.9,-1.6,28.12,SE,135,0.0,0.0,12,0.00,CLR,SKC,0.00,WeatherDisplay:10.37,2013-04-03 02:14:00,
2013-04-02 22:16:00,48.9,-1.6,28.12,SE,135,0.0,0.0,12,0.00,CLR,SKC,0.00,WeatherDisplay:10.37,2013-04-03 02:16:00,
2013-04-02 22:18:00,48.9,-1.6,28.12,SE,135,0.0,0.0,12,0.00,CLR,SKC,0.00,WeatherDisplay:10.37,2013-04-03 02:18:00,
2013-04-02 22:19:00,48.9,-1.6,28.12,SE,135,0.0,0.0,12,0.00,CLR,SKC,0.00,WeatherDisplay:10.37,2013-04-03 02:19:00,
2013-04-02 22:21:00,48.9,-1.6,28.12,SE,135,0.0,0.0,12,0.00,CLR,SKC,0.00,WeatherDisplay:10.37,2013-04-03 02:21:00,
2013-04-02 22:24:00,48.7,-1.7,28.12,SE,135,0.0,0.0,12,0.00,CLR,SKC,0.00,WeatherDisplay:10.37,2013-04-03 02:24:00,
2013-04-02 22:27:00,48.6,-1.9,28.12,SE,135,0.0,0.0,12,0.00,CLR,SKC,0.00,WeatherDisplay:10.37,2013-04-03 02:27:00,
2013-04-02 22:29:00,48.6,-1.9,28.12,SE,135,0.0,0.0,12,0.00,CLR,SKC,0.00,WeatherDisplay:10.37,2013-04-03 02:29:00,
2013-04-02 22:32:00,48.4,-2.0,28.12,NE,45,0.0,0.0,12,0.00,CLR,SKC,0.00,WeatherDisplay:10.37,2013-04-03 02:32:00,
2013-04-02 22:35:00,48.0,-2.3,28.12,NE,45,0.0,0.0,12,0.00,CLR,SKC,0.00,WeatherDisplay:10.37,2013-04-03 02:35:00,
2013-04-02 22:37:00,47.8,-2.4,28.12,NE,45,0.0,0.0,12,0.00,CLR,SKC,0.00,WeatherDisplay:10.37,2013-04-03 02:37:00,
2013-04-02 22:40:00,47.7,-2.6,28.12,NE,45,0.0,0.0,12,0.00,CLR,SKC,0.00,WeatherDisplay:10.37,2013-04-03 02:40:00,
2013-04-02 22:42:00,47.5,-2.7,28.13,NE,45,0.0,0.0,12,0.00,CLR,SKC,0.00,WeatherDisplay:10.37,2013-04-03 02:42:00,
2013-04-02 22:45:00,47.3,-2.9,28.12,NE,45,0.0,0.0,12,0.00,CLR,SKC,0.00,WeatherDisplay:10.37,2013-04-03 02:45:00,
2013-04-02 22:47:00,47.3,-2.9,28.12,NE,45,0.0,0.0,12,0.00,CLR,SKC,0.00,WeatherDisplay:10.37,2013-04-03 02:47:00,
2013-04-02 22:50:00,47.3,-2.9,28.12,NE,45,0.0,0.0,12,0.00,CLR,SKC,0.00,WeatherDisplay:10.37,2013-04-03 02:50:00,
2013-04-02 22:51:00,47.3,-2.9,28.12,NE,45,0.0,0.0,12,0.00,CLR,SKC,0.00,WeatherDisplay:10.37,2013-04-03 02:51:00,
2013-04-02 22:53:00,47.1,-3.0,28.13,NE,45,0.0,0.0,12,0.00,CLR,SKC,0.00,WeatherDisplay:10.37,2013-04-03 02:53:00,
2013-04-02 22:55:00,46.9,-3.1,28.13,NE,45,0.0,0.0,12,0.00,CLR,SKC,0.00,WeatherDisplay:10.37,2013-04-03 02:55:00,
2013-04-02 22:56:00,46.9,-3.1,28.13,NE,45,0.0,0.0,12,0.00,CLR,SKC,0.00,WeatherDisplay:10.37,2013-04-03 02:56:00,
2013-04-02 22:58:00,46.9,-3.1,28.13,NE,45,0.0,0.0,12,0.00,CLR,SKC,0.00,WeatherDisplay:10.37,2013-04-03 02:58:00,
2013-04-02 23:01:00,46.8,-3.3,28.13,NE,45,0.0,0.0,12,0.00,CLR,SKC,0.00,WeatherDisplay:10.37,2013-04-03 03:01:00,
2013-04-02 23:03:00,46.8,-3.3,28.12,NE,45,0.0,0.0,12,0.00,CLR,SKC,0.00,WeatherDisplay:10.37,2013-04-03 03:03:00,
2013-04-02 23:06:00,46.8,-3.3,28.13,NE,45,0.0,0.0,12,0.00,CLR,SKC,0.00,WeatherDisplay:10.37,2013-04-03 03:06:00,
2013-04-02 23:07:00,46.8,-3.3,28.13,NE,45,0.0,0.0,12,0.00,CLR,SKC,0.00,WeatherDisplay:10.37,2013-04-03 03:07:00,
2013-04-02 23:08:00,46.4,-3.6,28.13,NE,45,0.0,0.0,12,0.00,CLR,SKC,0.00,WeatherDisplay:10.37,2013-04-03 03:08:00,
2013-04-02 23:11:00,46.4,-3.6,28.12,NE,45,0.0,0.0,12,0.00,CLR,SKC,0.00,WeatherDisplay:10.37,2013-04-03 03:11:00,
2013-04-02 23:12:00,46.4,-3.6,28.12,NE,45,0.0,0.0,12,0.00,CLR,SKC,0.00,WeatherDisplay:10.37,2013-04-03 03:12:00,
2013-04-02 23:13:00,46.4,-3.6,28.13,NE,45,0.0,0.0,12,0.00,CLR,SKC,0.00,WeatherDisplay:10.37,2013-04-03 03:13:00,
2013-04-02 23:18:00,46.0,-3.9,28.12,NE,45,0.0,0.0,12,0.00,CLR,SKC,0.00,WeatherDisplay:10.37,2013-04-03 03:18:00,
2013-04-02 23:19:00,46.0,-3.9,28.13,NE,45,0.0,0.0,12,0.00,CLR,SKC,0.00,WeatherDisplay:10.37,2013-04-03 03:19:00,
2013-04-02 23:24:00,45.9,-4.0,28.13,NE,45,0.0,0.0,12,0.00,CLR,SKC,0.00,WeatherDisplay:10.37,2013-04-03 03:24:00,
2013-04-02 23:29:00,45.7,-7.9,28.13,NE,45,0.0,0.0,10,0.00,CLR,SKC,0.00,WeatherDisplay:10.37,2013-04-03 03:29:00,
2013-04-02 23:30:00,45.7,-7.9,28.13,NE,45,0.0,0.0,10,0.00,CLR,SKC,0.00,WeatherDisplay:10.37,2013-04-03 03:30:00,
2013-04-02 23:35:00,45.9,-7.8,28.13,NE,45,0.0,0.0,10,0.00,CLR,SKC,0.00,WeatherDisplay:10.37,2013-04-03 03:35:00,
2013-04-02 23:40:00,45.9,-7.8,28.13,NE,45,0.0,0.0,10,0.00,CLR,SKC,0.00,WeatherDisplay:10.37,2013-04-03 03:40:00,
2013-04-02 23:42:00,45.9,-7.8,28.13,NE,45,0.0,0.0,10,0.00,CLR,SKC,0.00,WeatherDisplay:10.37,2013-04-03 03:42:00,
2013-04-02 23:45:00,45.7,-7.9,28.13,NE,45,0.0,0.0,10,0.00,CLR,SKC,0.00,WeatherDisplay:10.37,2013-04-03 03:45:00,
2013-04-02 23:48:00,45.7,-7.9,28.13,NE,45,0.0,0.0,10,0.00,CLR,SKC,0.00,WeatherDisplay:10.37,2013-04-03 03:48:00,
2013-04-02 23:50:00,45.7,-7.9,28.13,NE,45,0.0,0.0,10,0.00,CLR,SKC,0.00,WeatherDisplay:10.37,2013-04-03 03:50:00,
2013-04-02 23:53:00,45.5,-8.1,28.13,NE,45,0.0,0.0,10,0.00,CLR,SKC,0.00,WeatherDisplay:10.37,2013-04-03 03:53:00,
2013-04-02 23:55:00,45.5,-8.1,28.13,NE,45,0.0,0.0,10,0.00,CLR,SKC,0.00,WeatherDisplay:10.37,2013-04-03 03:55:00,
2013-04-02 23:56:00,45.5,-8.1,28.13,NE,45,0.0,0.0,10,0.00,CLR,SKC,0.00,WeatherDisplay:10.37,2013-04-03 03:56:00,
2013-04-02 23:58:00,45.5,-8.1,28.14,NE,45,0.0,0.0,10,0.00,CLR,SKC,0.00,WeatherDisplay:10.37,2013-04-03 03:58:00,